Time,TemperatureF,DewpointF,PressureIn,WindDirection,WindDirectionDegrees,WindSpeedMPH,WindSpeedGustMPH,Humidity,HourlyPrecipIn,Conditions,Clouds,dailyrainin,SolarRadiationWatts/m^2,SoftwareType,DateUTC
2013-04-16 00:00:00,59.5,38.7,29.73,WNW,297,5.0,0.0,46,0.00,,,0.00,0,WeatherHawk,2013-04-16 07:00:00,
2013-04-16 00:03:00,59.5,39.3,29.73,West,281,5.0,0.0,47,0.00,,,0.00,0,WeatherHawk,2013-04-16 07:03:00,
2013-04-16 00:04:00,59.4,39.1,29.73,West,271,4.0,0.0,47,0.00,,,0.00,0,WeatherHawk,2013-04-16 07:04:00,
2013-04-16 00:05:00,59.4,39.1,29.73,West,275,4.0,0.0,47,0.00,,,0.00,0,WeatherHawk,2013-04-16 07:05:00,
2013-04-16 00:08:00,59.2,39.0,29.73,West,280,5.0,0.0,47,0.00,,,0.00,0,WeatherHawk,2013-04-16 07:08:00,
2013-04-16 00:09:00,59.2,39.0,29.73,WNW,299,5.0,7.0,47,0.00,,,0.00,0,WeatherHawk,2013-04-16 07:09:00,
2013-04-16 00:10:00,59.0,39.3,29.73,WNW,302,5.0,7.0,48,0.00,,,0.00,0,WeatherHawk,2013-04-16 07:10:00,
2013-04-16 00:11:00,59.0,38.8,29.73,WNW,297,5.0,7.0,47,0.00,,,0.00,0,WeatherHawk,2013-04-16 07:11:00,
2013-04-16 00:13:00,59.0,37.7,29.73,West,271,5.0,7.0,45,0.00,,,0.00,0,WeatherHawk,2013-04-16 07:13:00,
2013-04-16 00:15:00,59.4,38.0,29.73,WNW,284,9.0,9.0,45,0.00,,,0.00,0,WeatherHawk,2013-04-16 07:15:00,
2013-04-16 00:18:00,59.5,38.2,29.73,WNW,293,6.0,7.0,45,0.00,,,0.00,0,WeatherHawk,2013-04-16 07:18:00,
2013-04-16 00:19:00,59.7,38.9,29.73,WNW,303,5.0,11.0,46,0.00,,,0.00,0,WeatherHawk,2013-04-16 07:19:00,
2013-04-16 00:20:00,59.5,38.7,29.73,WNW,288,5.0,11.0,46,0.00,,,0.00,0,WeatherHawk,2013-04-16 07:20:00,
2013-04-16 00:23:00,59.5,38.2,29.73,WNW,291,3.0,11.0,45,0.00,,,0.00,0,WeatherHawk,2013-04-16 07:23:00,
2013-04-16 00:24:00,59.5,38.7,29.73,WNW,299,5.0,11.0,46,0.00,,,0.00,0,WeatherHawk,2013-04-16 07:24:00,
2013-04-16 00:25:00,59.5,38.7,29.73,NW,314,4.0,11.0,46,0.00,,,0.00,0,WeatherHawk,2013-04-16 07:25:00,
2013-04-16 00:27:00,59.2,39.0,29.73,NW,310,3.0,11.0,47,0.00,,,0.00,0,WeatherHawk,2013-04-16 07:27:00,
2013-04-16 00:28:00,59.2,39.0,29.73,NW,310,3.0,11.0,47,0.00,,,0.00,0,WeatherHawk,2013-04-16 07:28:00,
2013-04-16 00:29:00,58.8,39.2,29.73,NW,311,4.0,6.0,48,0.00,,,0.00,0,WeatherHawk,2013-04-16 07:29:00,
2013-04-16 00:33:00,58.5,38.8,29.73,NW,311,4.0,6.0,48,0.00,,,0.00,0,WeatherHawk,2013-04-16 07:33:00,
2013-04-16 00:36:00,58.6,38.5,29.73,NW,314,4.0,6.0,47,0.00,,,0.00,0,WeatherHawk,2013-04-16 07:36:00,
2013-04-16 00:37:00,58.8,38.6,29.73,NNW,329,4.0,6.0,47,0.00,,,0.00,0,WeatherHawk,2013-04-16 07:37:00,
2013-04-16 00:38:00,58.8,38.6,29.73,NNW,329,4.0,6.0,47,0.00,,,0.00,0,WeatherHawk,2013-04-16 07:38:00,
2013-04-16 00:40:00,59.0,38.2,29.73,NW,316,4.0,6.0,46,0.00,,,0.00,0,WeatherHawk,2013-04-16 07:40:00,
2013-04-16 00:41:00,59.0,38.2,29.73,NW,320,6.0,6.0,46,0.00,,,0.00,0,WeatherHawk,2013-04-16 07:41:00,
2013-04-16 00:43:00,59.0,38.2,29.73,NW,324,4.0,6.0,46,0.00,,,0.00,0,WeatherHawk,2013-04-16 07:43:00,
2013-04-16 00:44:00,59.0,38.2,29.73,NW,319,5.0,6.0,46,0.00,,,0.00,0,WeatherHawk,2013-04-16 07:44:00,
2013-04-16 00:48:00,59.4,38.0,29.73,NNW,333,5.0,-999.0,45,0.00,,,0.00,0,WeatherHawk,2013-04-16 07:48:00,
2013-04-16 00:50:00,59.2,38.4,29.73,NNW,342,5.0,8.0,46,0.00,,,0.00,0,WeatherHawk,2013-04-16 07:50:00,
2013-04-16 00:53:00,59.0,38.2,29.73,NNW,329,4.0,8.0,46,0.00,,,0.00,0,WeatherHawk,2013-04-16 07:53:00,
2013-04-16 00:54:00,59.0,38.2,29.73,NNW,329,5.0,8.0,46,0.00,,,0.00,0,WeatherHawk,2013-04-16 07:54:00,
2013-04-16 00:57:00,59.2,37.9,29.73,NNW,333,7.0,8.0,45,0.00,,,0.00,0,WeatherHawk,2013-04-16 07:57:00,
2013-04-16 00:58:00,59.2,37.9,29.73,NNW,333,7.0,8.0,45,0.00,,,0.00,0,WeatherHawk,2013-04-16 07:58:00,
2013-04-16 01:02:00,59.4,38.0,29.73,NNW,327,7.0,7.0,45,0.00,,,0.00,0,WeatherHawk,2013-04-16 08:02:00,
2013-04-16 01:03:00,59.4,38.0,29.73,NNW,327,7.0,7.0,45,0.00,,,0.00,0,WeatherHawk,2013-04-16 08:03:00,
2013-04-16 01:08:00,59.0,37.7,29.73,NW,310,8.0,8.0,45,0.00,,,0.00,0,WeatherHawk,2013-04-16 08:08:00,
2013-04-16 01:09:00,59.0,37.7,29.73,NW,314,7.0,8.0,45,0.00,,,0.00,0,WeatherHawk,2013-04-16 08:09:00,
2013-04-16 01:13:00,59.0,38.2,29.73,NW,322,6.0,8.0,46,0.00,,,0.00,0,WeatherHawk,2013-04-16 08:13:00,
2013-04-16 01:14:00,58.8,38.1,29.73,NW,323,6.0,8.0,46,0.00,,,0.00,0,WeatherHawk,2013-04-16 08:14:00,
2013-04-16 01:16:00,58.6,38.5,29.73,NNW,327,6.0,8.0,47,0.00,,,0.00,0,WeatherHawk,2013-04-16 08:16:00,
2013-04-16 01:18:00,58.6,38.5,29.73,NW,318,7.0,8.0,47,0.00,,,0.00,0,WeatherHawk,2013-04-16 08:18:00,
2013-04-16 01:20:00,58.6,38.5,29.73,NW,316,8.0,8.0,47,0.00,,,0.00,0,WeatherHawk,2013-04-16 08:20:00,
2013-04-16 01:23:00,58.6,38.5,29.73,NW,314,7.0,-999.0,47,0.00,,,0.00,0,WeatherHawk,2013-04-16 08:23:00,
2013-04-16 01:25:00,58.8,38.6,29.73,NW,313,8.0,8.0,47,0.00,,,0.00,0,WeatherHawk,2013-04-16 08:25:00,
2013-04-16 01:28:00,58.8,38.1,29.73,NNW,332,8.0,-999.0,46,0.00,,,0.00,0,WeatherHawk,2013-04-16 08:28:00,
2013-04-16 01:30:00,58.5,38.8,29.73,NNW,327,6.0,12.0,48,0.00,,,0.00,0,WeatherHawk,2013-04-16 08:30:00,
2013-04-16 01:33:00,57.7,38.7,29.73,NW,326,6.0,12.0,49,0.00,,,0.00,0,WeatherHawk,2013-04-16 08:33:00,
2013-04-16 01:34:00,57.7,38.7,29.73,NW,321,6.0,12.0,49,0.00,,,0.00,1,WeatherHawk,2013-04-16 08:34:00,
2013-04-16 01:37:00,57.7,38.7,29.73,NW,317,6.0,12.0,49,0.00,,,0.00,0,WeatherHawk,2013-04-16 08:37:00,
2013-04-16 01:39:00,57.6,38.5,29.73,NW,313,7.0,9.0,49,0.00,,,0.00,0,WeatherHawk,2013-04-16 08:39:00,
2013-04-16 01:40:00,57.6,38.5,29.73,NW,315,8.0,9.0,49,0.00,,,0.00,0,WeatherHawk,2013-04-16 08:40:00,
2013-04-16 01:43:00,57.6,39.1,29.73,NW,319,9.0,9.0,50,0.00,,,0.00,0,WeatherHawk,2013-04-16 08:43:00,
2013-04-16 01:44:00,57.4,38.9,29.73,NW,312,7.0,9.0,50,0.00,,,0.00,0,WeatherHawk,2013-04-16 08:44:00,
2013-04-16 01:45:00,57.2,39.2,29.73,NW,319,7.0,9.0,51,0.00,,,0.00,0,WeatherHawk,2013-04-16 08:45:00,
2013-04-16 01:46:00,57.2,39.2,29.73,NW,324,6.0,9.0,51,0.00,,,0.00,0,WeatherHawk,2013-04-16 08:46:00,
2013-04-16 01:48:00,57.0,39.1,29.73,NW,321,8.0,9.0,51,0.00,,,0.00,0,WeatherHawk,2013-04-16 08:48:00,
2013-04-16 01:52:00,57.2,38.7,29.73,NNW,329,9.0,11.0,50,0.00,,,0.00,0,WeatherHawk,2013-04-16 08:52:00,
2013-04-16 01:53:00,57.2,38.7,29.73,NW,326,9.0,11.0,50,0.00,,,0.00,0,WeatherHawk,2013-04-16 08:53:00,
2013-04-16 01:57:00,57.2,39.2,29.73,NNW,333,9.0,11.0,51,0.00,,,0.00,0,WeatherHawk,2013-04-16 08:57:00,
2013-04-16 01:58:00,57.2,39.2,29.73,NNW,333,9.0,-999.0,51,0.00,,,0.00,0,WeatherHawk,2013-04-16 08:58:00,
2013-04-16 01:59:00,57.0,39.1,29.73,NNW,334,7.0,10.0,51,0.00,,,0.00,0,WeatherHawk,2013-04-16 08:59:00,
2013-04-16 02:00:00,57.0,39.1,29.73,NNW,335,6.0,10.0,51,0.00,,,0.00,0,WeatherHawk,2013-04-16 09:00:00,
2013-04-16 02:05:00,57.4,38.4,29.73,NNW,332,9.0,10.0,49,0.00,,,0.00,0,WeatherHawk,2013-04-16 09:05:00,
2013-04-16 02:07:00,57.6,38.5,29.73,NNW,333,8.0,10.0,49,0.00,,,0.00,0,WeatherHawk,2013-04-16 09:07:00,
2013-04-16 02:08:00,57.6,38.5,29.73,NNW,333,8.0,10.0,49,0.00,,,0.00,0,WeatherHawk,2013-04-16 09:08:00,
2013-04-16 02:10:00,57.6,38.5,29.73,NNW,328,9.0,0.0,49,0.00,,,0.00,0,WeatherHawk,2013-04-16 09:10:00,
2013-04-16 02:13:00,57.6,39.1,29.73,NNW,333,7.0,-999.0,50,0.00,,,0.00,0,WeatherHawk,2013-04-16 09:13:00,
2013-04-16 02:17:00,57.6,39.1,29.73,NNW,337,6.0,0.0,50,0.00,,,0.00,0,WeatherHawk,2013-04-16 09:17:00,
2013-04-16 02:18:00,57.6,39.1,29.73,NNW,334,8.0,0.0,50,0.00,,,0.00,0,WeatherHawk,2013-04-16 09:18:00,
2013-04-16 02:19:00,57.6,38.5,29.73,NNW,335,9.0,0.0,49,0.00,,,0.00,0,WeatherHawk,2013-04-16 09:19:00,
2013-04-16 02:23:00,57.6,38.5,29.73,NNW,328,10.0,-999.0,49,0.00,,,0.00,0,WeatherHawk,2013-04-16 09:23:00,
2013-04-16 02:28:00,57.4,38.9,29.73,NNW,328,8.0,0.0,50,0.00,,,0.00,0,WeatherHawk,2013-04-16 09:28:00,
2013-04-16 02:29:00,57.4,38.9,29.73,NNW,327,10.0,0.0,50,0.00,,,0.00,0,WeatherHawk,2013-04-16 09:29:00,
2013-04-16 02:33:00,57.2,39.2,29.73,NNW,328,8.0,11.0,51,0.00,,,0.00,0,WeatherHawk,2013-04-16 09:33:00,
2013-04-16 02:34:00,57.0,38.6,29.73,NW,320,9.0,11.0,50,0.00,,,0.00,0,WeatherHawk,2013-04-16 09:34:00,
2013-04-16 02:35:00,57.0,39.1,29.73,NNW,328,7.0,11.0,51,0.00,,,0.00,0,WeatherHawk,2013-04-16 09:35:00,
2013-04-16 02:37:00,57.0,39.1,29.73,NW,326,6.0,11.0,51,0.00,,,0.00,0,WeatherHawk,2013-04-16 09:37:00,
2013-04-16 02:38:00,57.0,39.1,29.73,NW,326,6.0,-999.0,51,0.00,,,0.00,0,WeatherHawk,2013-04-16 09:38:00,
2013-04-16 02:39:00,56.8,38.9,29.73,NW,322,10.0,11.0,51,0.00,,,0.00,0,WeatherHawk,2013-04-16 09:39:00,
2013-04-16 02:41:00,56.8,38.9,29.73,NW,319,9.0,11.0,51,0.00,,,0.00,0,WeatherHawk,2013-04-16 09:41:00,
2013-04-16 02:43:00,56.8,38.9,29.73,NNW,333,11.0,-999.0,51,0.00,,,0.00,0,WeatherHawk,2013-04-16 09:43:00,
2013-04-16 02:46:00,56.7,39.2,29.73,NW,322,7.0,11.0,52,0.00,,,0.00,0,WeatherHawk,2013-04-16 09:46:00,
2013-04-16 02:47:00,56.5,39.1,29.73,NW,321,7.0,11.0,52,0.00,,,0.00,0,WeatherHawk,2013-04-16 09:47:00,
2013-04-16 02:48:00,56.5,39.6,29.73,NW,325,6.0,13.0,53,0.00,,,0.00,0,WeatherHawk,2013-04-16 09:48:00,
2013-04-16 02:51:00,56.3,39.4,29.73,NW,322,8.0,13.0,53,0.00,,,0.00,0,WeatherHawk,2013-04-16 09:51:00,
2013-04-16 02:53:00,56.3,39.4,29.73,NW,315,9.0,13.0,53,0.00,,,0.00,0,WeatherHawk,2013-04-16 09:53:00,
2013-04-16 02:58:00,56.1,39.7,29.73,NW,319,7.0,13.0,54,0.00,,,0.00,0,WeatherHawk,2013-04-16 09:58:00,
2013-04-16 03:03:00,55.8,38.9,29.73,NW,324,8.0,0.0,53,0.00,,,0.00,0,WeatherHawk,2013-04-16 10:03:00,
2013-04-16 03:04:00,55.9,39.1,29.73,NW,325,9.0,0.0,53,0.00,,,0.00,0,WeatherHawk,2013-04-16 10:04:00,
2013-04-16 03:08:00,55.8,39.4,29.73,NW,324,6.0,0.0,54,0.00,,,0.00,0,WeatherHawk,2013-04-16 10:08:00,
2013-04-16 03:10:00,55.8,38.9,29.74,NW,315,8.0,9.0,53,0.00,,,0.00,0,WeatherHawk,2013-04-16 10:10:00,
2013-04-16 03:13:00,55.6,39.2,29.74,NW,318,6.0,9.0,54,0.00,,,0.00,0,WeatherHawk,2013-04-16 10:13:00,
2013-04-16 03:15:00,55.4,39.0,29.74,NW,319,6.0,9.0,54,0.00,,,0.00,0,WeatherHawk,2013-04-16 10:15:00,
2013-04-16 03:18:00,55.4,39.0,29.74,NW,316,7.0,-999.0,54,0.00,,,0.00,0,WeatherHawk,2013-04-16 10:18:00,
2013-04-16 03:22:00,55.2,38.9,29.74,NW,324,10.0,10.0,54,0.00,,,0.00,0,WeatherHawk,2013-04-16 10:22:00,
2013-04-16 03:23:00,55.4,39.0,29.74,NW,323,8.0,-999.0,54,0.00,,,0.00,1,WeatherHawk,2013-04-16 10:23:00,
2013-04-16 03:26:00,55.6,38.7,29.74,NNW,335,7.0,9.0,53,0.00,,,0.00,0,WeatherHawk,2013-04-16 10:26:00,
2013-04-16 03:27:00,55.6,38.7,29.74,NNW,336,8.0,9.0,53,0.00,,,0.00,0,WeatherHawk,2013-04-16 10:27:00,
2013-04-16 03:29:00,55.9,38.6,29.74,NNW,330,7.0,10.0,52,0.00,,,0.00,0,WeatherHawk,2013-04-16 10:29:00,
2013-04-16 03:33:00,56.3,38.4,29.74,NNW,331,8.0,10.0,51,0.00,,,0.00,0,WeatherHawk,2013-04-16 10:33:00,
2013-04-16 03:34:00,56.3,38.4,29.74,NNW,331,11.0,11.0,51,0.00,,,0.00,0,WeatherHawk,2013-04-16 10:34:00,
2013-04-16 03:38:00,56.3,38.4,29.74,NNW,331,9.0,10.0,51,0.00,,,0.00,0,WeatherHawk,2013-04-16 10:38:00,
2013-04-16 03:40:00,56.3,37.9,29.74,NNW,335,10.0,0.0,50,0.00,,,0.00,0,WeatherHawk,2013-04-16 10:40:00,
2013-04-16 03:42:00,56.3,38.4,29.74,NNW,332,8.0,0.0,51,0.00,,,0.00,0,WeatherHawk,2013-04-16 10:42:00,
2013-04-16 03:43:00,56.3,38.4,29.74,NNW,332,8.0,0.0,51,0.00,,,0.00,0,WeatherHawk,2013-04-16 10:43:00,
2013-04-16 03:45:00,56.5,38.1,29.74,NNW,333,9.0,0.0,50,0.00,,,0.00,0,WeatherHawk,2013-04-16 10:45:00,
2013-04-16 03:46:00,56.5,38.1,29.74,NNW,338,9.0,0.0,50,0.00,,,0.00,0,WeatherHawk,2013-04-16 10:46:00,
2013-04-16 03:48:00,56.5,38.1,29.74,NNW,328,9.0,-999.0,50,0.00,,,0.00,0,WeatherHawk,2013-04-16 10:48:00,
2013-04-16 03:52:00,56.7,37.7,29.74,NNW,329,11.0,13.0,49,0.00,,,0.00,0,WeatherHawk,2013-04-16 10:52:00,
2013-04-16 03:54:00,56.7,38.2,29.74,NNW,332,10.0,13.0,50,0.00,,,0.00,0,WeatherHawk,2013-04-16 10:54:00,
2013-04-16 03:56:00,56.5,37.6,29.74,NNW,327,12.0,13.0,49,0.00,,,0.00,0,WeatherHawk,2013-04-16 10:56:00,
2013-04-16 03:57:00,56.7,37.7,29.74,NNW,334,10.0,13.0,49,0.00,,,0.00,0,WeatherHawk,2013-04-16 10:57:00,
2013-04-16 03:58:00,56.7,37.7,29.74,NNW,334,10.0,13.0,49,0.00,,,0.00,0,WeatherHawk,2013-04-16 10:58:00,
2013-04-16 04:03:00,56.5,37.6,29.74,NNW,336,13.0,-999.0,49,0.00,,,0.00,0,WeatherHawk,2013-04-16 11:03:00,
2013-04-16 04:05:00,56.3,37.9,29.74,NNW,334,9.0,0.0,50,0.00,,,0.00,0,WeatherHawk,2013-04-16 11:05:00,
2013-04-16 04:06:00,56.3,37.9,29.75,NNW,332,10.0,0.0,50,0.00,,,0.00,1,WeatherHawk,2013-04-16 11:06:00,
2013-04-16 04:08:00,56.3,38.4,29.75,NNW,332,9.0,0.0,51,0.00,,,0.00,0,WeatherHawk,2013-04-16 11:08:00,
2013-04-16 04:12:00,56.1,38.2,29.75,NNW,336,8.0,0.0,51,0.00,,,0.00,0,WeatherHawk,2013-04-16 11:12:00,
2013-04-16 04:13:00,56.1,38.2,29.75,NNW,336,8.0,0.0,51,0.00,,,0.00,0,WeatherHawk,2013-04-16 11:13:00,
2013-04-16 04:15:00,55.9,38.1,29.75,NNW,337,9.0,0.0,51,0.00,,,0.00,0,WeatherHawk,2013-04-16 11:15:00,
2013-04-16 04:18:00,55.9,37.6,29.75,NNW,335,10.0,0.0,50,0.00,,,0.00,0,WeatherHawk,2013-04-16 11:18:00,
2013-04-16 04:19:00,56.1,38.2,29.74,NNW,336,7.0,0.0,51,0.00,,,0.00,0,WeatherHawk,2013-04-16 11:19:00,
2013-04-16 04:20:00,56.1,38.2,29.74,NNW,335,9.0,0.0,51,0.00,,,0.00,0,WeatherHawk,2013-04-16 11:20:00,
2013-04-16 04:22:00,56.1,38.2,29.74,NNW,334,7.0,-999.0,51,0.00,,,0.00,0,WeatherHawk,2013-04-16 11:22:00,
2013-04-16 04:24:00,56.1,38.2,29.75,NNW,332,9.0,0.0,51,0.00,,,0.00,0,WeatherHawk,2013-04-16 11:24:00,
2013-04-16 04:26:00,56.1,38.2,29.75,NNW,333,7.0,0.0,51,0.00,,,0.00,0,WeatherHawk,2013-04-16 11:26:00,
2013-04-16 04:27:00,55.9,38.1,29.75,NNW,331,8.0,-999.0,51,0.00,,,0.00,0,WeatherHawk,2013-04-16 11:27:00,
2013-04-16 04:28:00,55.9,38.1,29.75,NNW,337,10.0,0.0,51,0.00,,,0.00,0,WeatherHawk,2013-04-16 11:28:00,
2013-04-16 04:30:00,55.9,38.1,29.75,NNW,329,9.0,0.0,51,0.00,,,0.00,0,WeatherHawk,2013-04-16 11:30:00,
2013-04-16 04:32:00,55.8,38.4,29.75,NNW,335,8.0,0.0,52,0.00,,,0.00,0,WeatherHawk,2013-04-16 11:32:00,
2013-04-16 04:33:00,55.8,38.4,29.75,NNW,338,9.0,0.0,52,0.00,,,0.00,0,WeatherHawk,2013-04-16 11:33:00,
2013-04-16 04:34:00,55.8,38.9,29.75,NNW,345,6.0,0.0,53,0.00,,,0.00,0,WeatherHawk,2013-04-16 11:34:00,
2013-04-16 04:35:00,55.6,38.2,29.75,NNW,336,9.0,0.0,52,0.00,,,0.00,0,WeatherHawk,2013-04-16 11:35:00,
2013-04-16 04:37:00,55.8,38.4,29.75,NNW,337,6.0,0.0,52,0.00,,,0.00,0,WeatherHawk,2013-04-16 11:37:00,
2013-04-16 04:39:00,55.8,38.4,29.75,NNW,345,6.0,0.0,52,0.00,,,0.00,0,WeatherHawk,2013-04-16 11:39:00,
2013-04-16 04:40:00,55.8,38.4,29.75,NNW,345,6.0,0.0,52,0.00,,,0.00,0,WeatherHawk,2013-04-16 11:40:00,
2013-04-16 04:44:00,55.8,37.9,29.75,North,352,7.0,0.0,51,0.00,,,0.00,0,WeatherHawk,2013-04-16 11:44:00,
2013-04-16 04:47:00,56.1,37.7,29.75,NNW,333,12.0,0.0,50,0.00,,,0.00,0,WeatherHawk,2013-04-16 11:47:00,
2013-04-16 04:48:00,56.1,37.7,29.75,NNW,333,12.0,12.0,50,0.00,,,0.00,0,WeatherHawk,2013-04-16 11:48:00,
2013-04-16 04:50:00,56.1,37.7,29.74,NNW,335,11.0,12.0,50,0.00,,,0.00,0,WeatherHawk,2013-04-16 11:50:00,
2013-04-16 04:53:00,55.9,37.6,29.74,NNW,336,13.0,13.0,50,0.00,,,0.00,0,WeatherHawk,2013-04-16 11:53:00,
2013-04-16 04:54:00,55.9,37.6,29.74,NNW,345,10.0,12.0,50,0.00,,,0.00,0,WeatherHawk,2013-04-16 11:54:00,
2013-04-16 04:58:00,55.9,37.6,29.74,NNW,342,9.0,-999.0,50,0.00,,,0.00,0,WeatherHawk,2013-04-16 11:58:00,
2013-04-16 05:00:00,55.9,37.6,29.74,NNW,342,10.0,13.0,50,0.00,,,0.00,0,WeatherHawk,2013-04-16 12:00:00,
2013-04-16 05:01:00,55.9,37.6,29.75,NNW,344,10.0,13.0,50,0.00,,,0.00,0,WeatherHawk,2013-04-16 12:01:00,
2013-04-16 05:04:00,55.9,37.6,29.75,NNW,332,9.0,13.0,50,0.00,,,0.00,0,WeatherHawk,2013-04-16 12:04:00,
2013-04-16 05:06:00,56.1,37.7,29.75,NNW,345,11.0,13.0,50,0.00,,,0.00,0,WeatherHawk,2013-04-16 12:06:00,
2013-04-16 05:08:00,56.1,37.7,29.75,NNW,338,7.0,13.0,50,0.00,,,0.00,0,WeatherHawk,2013-04-16 12:08:00,
2013-04-16 05:11:00,56.1,37.7,29.74,NNW,342,9.0,13.0,50,0.00,,,0.00,0,WeatherHawk,2013-04-16 12:11:00,
2013-04-16 05:12:00,55.9,37.6,29.74,NNW,341,10.0,13.0,50,0.00,,,0.00,0,WeatherHawk,2013-04-16 12:12:00,
2013-04-16 05:13:00,55.9,37.6,29.75,NNW,341,12.0,13.0,50,0.00,,,0.00,0,WeatherHawk,2013-04-16 12:13:00,
2013-04-16 05:18:00,55.8,37.9,29.75,NNW,343,8.0,13.0,51,0.00,,,0.00,0,WeatherHawk,2013-04-16 12:18:00,
2013-04-16 05:21:00,55.6,37.7,29.75,NNW,344,11.0,14.0,51,0.00,,,0.00,0,WeatherHawk,2013-04-16 12:21:00,
2013-04-16 05:22:00,55.8,37.9,29.75,NNW,338,9.0,14.0,51,0.00,,,0.00,0,WeatherHawk,2013-04-16 12:22:00,
2013-04-16 05:24:00,55.8,37.9,29.75,NNW,335,8.0,14.0,51,0.00,,,0.00,0,WeatherHawk,2013-04-16 12:24:00,
2013-04-16 05:27:00,55.6,37.2,29.75,NNW,343,11.0,14.0,50,0.00,,,0.00,1,WeatherHawk,2013-04-16 12:27:00,
2013-04-16 05:29:00,55.6,37.7,29.75,NNW,337,9.0,14.0,51,0.00,,,0.00,0,WeatherHawk,2013-04-16 12:29:00,
2013-04-16 05:31:00,55.4,37.6,29.75,NNW,330,9.0,14.0,51,0.00,,,0.00,0,WeatherHawk,2013-04-16 12:31:00,
2013-04-16 05:32:00,55.4,38.1,29.75,NNW,338,9.0,14.0,52,0.00,,,0.00,0,WeatherHawk,2013-04-16 12:32:00,
2013-04-16 05:33:00,55.4,38.1,29.75,NNW,338,9.0,14.0,52,0.00,,,0.00,0,WeatherHawk,2013-04-16 12:33:00,
2013-04-16 05:34:00,55.2,37.9,29.75,NNW,341,9.0,14.0,52,0.00,,,0.00,1,WeatherHawk,2013-04-16 12:34:00,
2013-04-16 05:38:00,55.0,37.7,29.75,NNW,342,7.0,-999.0,52,0.00,,,0.00,0,WeatherHawk,2013-04-16 12:38:00,
2013-04-16 05:39:00,55.0,38.2,29.75,NNW,334,8.0,0.0,53,0.00,,,0.00,0,WeatherHawk,2013-04-16 12:39:00,
2013-04-16 05:41:00,54.9,37.6,29.75,NNW,331,7.0,0.0,52,0.00,,,0.00,0,WeatherHawk,2013-04-16 12:41:00,
2013-04-16 05:42:00,54.9,37.6,29.76,NNW,340,9.0,11.0,52,0.00,,,0.00,0,WeatherHawk,2013-04-16 12:42:00,
2013-04-16 05:43:00,54.9,37.6,29.75,NNW,336,12.0,-999.0,52,0.00,,,0.00,0,WeatherHawk,2013-04-16 12:43:00,
2013-04-16 05:47:00,54.9,37.6,29.75,NNW,335,10.0,11.0,52,0.00,,,0.00,0,WeatherHawk,2013-04-16 12:47:00,
2013-04-16 05:48:00,54.7,37.4,29.75,NNW,338,7.0,11.0,52,0.00,,,0.00,0,WeatherHawk,2013-04-16 12:48:00,
2013-04-16 05:53:00,54.5,37.7,29.76,NNW,346,6.0,12.0,53,0.00,,,0.00,0,WeatherHawk,2013-04-16 12:53:00,
2013-04-16 05:54:00,54.5,37.2,29.76,NNW,337,7.0,12.0,52,0.00,,,0.00,0,WeatherHawk,2013-04-16 12:54:00,
2013-04-16 05:58:00,54.5,37.2,29.76,NNW,344,8.0,12.0,52,0.00,,,0.00,1,WeatherHawk,2013-04-16 12:58:00,
2013-04-16 06:00:00,54.3,37.1,29.76,NNW,337,9.0,9.0,52,0.00,,,0.00,3,WeatherHawk,2013-04-16 13:00:00,
2013-04-16 06:02:00,54.3,37.1,29.76,NNW,342,9.0,9.0,52,0.00,,,0.00,4,WeatherHawk,2013-04-16 13:02:00,
2013-04-16 06:03:00,54.3,37.1,29.76,NNW,340,7.0,9.0,52,0.00,,,0.00,4,WeatherHawk,2013-04-16 13:03:00,
2013-04-16 06:07:00,54.1,37.4,29.76,NNW,339,6.0,9.0,53,0.00,,,0.00,6,WeatherHawk,2013-04-16 13:07:00,
2013-04-16 06:08:00,54.1,37.4,29.76,NNW,328,6.0,9.0,53,0.00,,,0.00,7,WeatherHawk,2013-04-16 13:08:00,
2013-04-16 06:10:00,54.0,37.2,29.76,NNW,327,6.0,10.0,53,0.00,,,0.00,8,WeatherHawk,2013-04-16 13:10:00,
2013-04-16 06:11:00,54.0,37.2,29.76,NW,326,5.0,10.0,53,0.00,,,0.00,10,WeatherHawk,2013-04-16 13:11:00,
2013-04-16 06:13:00,53.8,37.5,29.77,NW,324,6.0,-999.0,54,0.00,,,0.00,12,WeatherHawk,2013-04-16 13:13:00,
2013-04-16 06:16:00,53.6,37.4,29.77,NNW,329,6.0,10.0,54,0.00,,,0.00,16,WeatherHawk,2013-04-16 13:16:00,
2013-04-16 06:17:00,53.6,37.4,29.77,NNW,327,6.0,10.0,54,0.00,,,0.00,19,WeatherHawk,2013-04-16 13:17:00,
2013-04-16 06:18:00,53.4,37.2,29.77,NW,326,5.0,-999.0,54,0.00,,,0.00,22,WeatherHawk,2013-04-16 13:18:00,
2013-04-16 06:21:00,53.4,37.2,29.77,NNW,327,7.0,8.0,54,0.00,,,0.00,27,WeatherHawk,2013-04-16 13:21:00,
2013-04-16 06:23:00,53.4,37.2,29.77,NW,319,9.0,9.0,54,0.00,,,0.00,31,WeatherHawk,2013-04-16 13:23:00,
2013-04-16 06:28:00,53.4,37.2,29.77,NW,324,6.0,8.0,54,0.00,,,0.00,45,WeatherHawk,2013-04-16 13:28:00,
2013-04-16 06:29:00,53.4,37.2,29.77,NNW,327,8.0,9.0,54,0.00,,,0.00,48,WeatherHawk,2013-04-16 13:29:00,
2013-04-16 06:30:00,53.4,36.7,29.77,NNW,337,8.0,9.0,53,0.00,,,0.00,51,WeatherHawk,2013-04-16 13:30:00,
2013-04-16 06:33:00,53.6,36.9,29.78,NNW,335,7.0,9.0,53,0.00,,,0.00,53,WeatherHawk,2013-04-16 13:33:00,
2013-04-16 06:35:00,53.6,36.4,29.78,NW,315,7.0,9.0,52,0.00,,,0.00,62,WeatherHawk,2013-04-16 13:35:00,
2013-04-16 06:36:00,53.8,36.6,29.78,NNW,332,10.0,10.0,52,0.00,,,0.00,65,WeatherHawk,2013-04-16 13:36:00,
2013-04-16 06:38:00,53.8,36.1,29.78,NNW,333,9.0,9.0,51,0.00,,,0.00,72,WeatherHawk,2013-04-16 13:38:00,
2013-04-16 06:39:00,53.8,36.6,29.78,NNW,332,6.0,11.0,52,0.00,,,0.00,74,WeatherHawk,2013-04-16 13:39:00,
2013-04-16 06:41:00,53.8,36.6,29.78,NNW,339,7.0,11.0,52,0.00,,,0.00,79,WeatherHawk,2013-04-16 13:41:00,
2013-04-16 06:44:00,54.0,36.2,29.79,NNW,327,10.0,11.0,51,0.00,,,0.00,88,WeatherHawk,2013-04-16 13:44:00,
2013-04-16 06:45:00,54.0,36.2,29.79,NNW,337,7.0,11.0,51,0.00,,,0.00,90,WeatherHawk,2013-04-16 13:45:00,
2013-04-16 06:48:00,54.0,36.2,29.79,NNW,347,7.0,11.0,51,0.00,,,0.00,100,WeatherHawk,2013-04-16 13:48:00,
2013-04-16 06:50:00,54.1,36.4,29.79,NNW,333,8.0,12.0,51,0.00,,,0.00,107,WeatherHawk,2013-04-16 13:50:00,
2013-04-16 06:52:00,54.1,35.9,29.80,North,349,6.0,12.0,50,0.00,,,0.00,113,WeatherHawk,2013-04-16 13:52:00,
2013-04-16 06:53:00,54.3,36.6,29.80,NNW,344,7.0,12.0,51,0.00,,,0.00,117,WeatherHawk,2013-04-16 13:53:00,
2013-04-16 06:57:00,54.5,36.2,29.80,North,0,4.0,12.0,50,0.00,,,0.00,131,WeatherHawk,2013-04-16 13:57:00,
2013-04-16 06:58:00,54.5,35.7,29.80,North,0,6.0,12.0,49,0.00,,,0.00,137,WeatherHawk,2013-04-16 13:58:00,
2013-04-16 07:00:00,54.7,35.9,29.80,NNW,343,4.0,10.0,49,0.00,,,0.00,142,WeatherHawk,2013-04-16 14:00:00,
2013-04-16 07:02:00,54.9,35.5,29.80,NNW,347,10.0,10.0,48,0.00,,,0.00,150,WeatherHawk,2013-04-16 14:02:00,
2013-04-16 07:03:00,54.9,35.5,29.80,NNW,347,10.0,10.0,48,0.00,,,0.00,150,WeatherHawk,2013-04-16 14:03:00,
2013-04-16 07:05:00,55.0,36.2,29.80,NNW,328,8.0,10.0,49,0.00,,,0.00,161,WeatherHawk,2013-04-16 14:05:00,
2013-04-16 07:08:00,55.0,36.2,29.80,NW,324,10.0,10.0,49,0.00,,,0.00,171,WeatherHawk,2013-04-16 14:08:00,
2013-04-16 07:11:00,55.0,36.2,29.81,NNW,330,9.0,13.0,49,0.00,,,0.00,179,WeatherHawk,2013-04-16 14:11:00,
2013-04-16 07:13:00,55.0,36.2,29.81,NW,324,8.0,13.0,49,0.00,,,0.00,185,WeatherHawk,2013-04-16 14:13:00,
2013-04-16 07:14:00,55.0,36.7,29.81,NNW,327,9.0,13.0,50,0.00,,,0.00,191,WeatherHawk,2013-04-16 14:14:00,
2013-04-16 07:16:00,55.0,36.7,29.81,NNW,329,9.0,13.0,50,0.00,,,0.00,197,WeatherHawk,2013-04-16 14:16:00,
2013-04-16 07:17:00,55.0,36.7,29.81,NW,326,7.0,13.0,50,0.00,,,0.00,202,WeatherHawk,2013-04-16 14:17:00,
2013-04-16 07:18:00,55.0,37.2,29.81,NW,321,8.0,13.0,51,0.00,,,0.00,203,WeatherHawk,2013-04-16 14:18:00,
2013-04-16 07:19:00,55.0,37.2,29.81,NW,325,8.0,12.0,51,0.00,,,0.00,209,WeatherHawk,2013-04-16 14:19:00,
2013-04-16 07:23:00,55.2,36.9,29.81,NNW,329,9.0,12.0,50,0.00,,,0.00,224,WeatherHawk,2013-04-16 14:23:00,
2013-04-16 07:24:00,55.2,36.9,29.82,NW,323,8.0,12.0,50,0.00,,,0.00,227,WeatherHawk,2013-04-16 14:24:00,
2013-04-16 07:25:00,55.4,37.1,29.82,NW,323,8.0,12.0,50,0.00,,,0.00,232,WeatherHawk,2013-04-16 14:25:00,
2013-04-16 07:27:00,55.4,37.1,29.82,NW,316,8.0,12.0,50,0.00,,,0.00,240,WeatherHawk,2013-04-16 14:27:00,
2013-04-16 07:31:00,55.6,37.2,29.82,WNW,295,8.0,10.0,50,0.00,,,0.00,253,WeatherHawk,2013-04-16 14:31:00,
2013-04-16 07:33:00,55.6,37.2,29.82,NW,320,10.0,10.0,50,0.00,,,0.00,261,WeatherHawk,2013-04-16 14:33:00,
2013-04-16 07:35:00,55.8,36.9,29.82,WNW,294,12.0,12.0,49,0.00,,,0.00,271,WeatherHawk,2013-04-16 14:35:00,
2013-04-16 07:37:00,55.8,37.4,29.82,WNW,297,10.0,10.0,50,0.00,,,0.00,275,WeatherHawk,2013-04-16 14:37:00,
2013-04-16 07:38:00,55.8,37.4,29.82,WNW,297,10.0,10.0,50,0.00,,,0.00,275,WeatherHawk,2013-04-16 14:38:00,
2013-04-16 07:39:00,56.1,37.2,29.82,NW,308,9.0,0.0,49,0.00,,,0.00,289,WeatherHawk,2013-04-16 14:39:00,
2013-04-16 07:43:00,56.1,37.2,29.82,NW,316,9.0,13.0,49,0.00,,,0.00,298,WeatherHawk,2013-04-16 14:43:00,
2013-04-16 07:44:00,56.3,37.4,29.82,NW,322,11.0,13.0,49,0.00,,,0.00,303,WeatherHawk,2013-04-16 14:44:00,
2013-04-16 07:48:00,56.7,37.2,29.82,NW,325,11.0,13.0,48,0.00,,,0.00,314,WeatherHawk,2013-04-16 14:48:00,
2013-04-16 07:52:00,56.8,37.4,29.82,NNW,328,10.0,14.0,48,0.00,,,0.00,337,WeatherHawk,2013-04-16 14:52:00,
2013-04-16 07:53:00,56.8,37.4,29.82,NNW,328,10.0,14.0,48,0.00,,,0.00,337,WeatherHawk,2013-04-16 14:53:00,
2013-04-16 07:58:00,57.4,37.3,29.82,NW,309,10.0,14.0,47,0.00,,,0.00,362,WeatherHawk,2013-04-16 14:58:00,
2013-04-16 08:01:00,57.4,36.2,29.82,NW,306,13.0,14.0,45,0.00,,,0.00,371,WeatherHawk,2013-04-16 15:01:00,
2013-04-16 08:03:00,57.6,36.4,29.82,NW,309,13.0,14.0,45,0.00,,,0.00,380,WeatherHawk,2013-04-16 15:03:00,
2013-04-16 08:04:00,57.6,36.9,29.82,WNW,299,11.0,14.0,46,0.00,,,0.00,383,WeatherHawk,2013-04-16 15:04:00,
2013-04-16 08:06:00,57.7,37.1,29.82,NW,307,9.0,14.0,46,0.00,,,0.00,390,WeatherHawk,2013-04-16 15:06:00,
2013-04-16 08:08:00,57.7,36.5,29.82,NW,310,13.0,14.0,45,0.00,,,0.00,395,WeatherHawk,2013-04-16 15:08:00,
2013-04-16 08:10:00,58.1,36.3,29.82,NW,304,11.0,15.0,44,0.00,,,0.00,405,WeatherHawk,2013-04-16 15:10:00,
2013-04-16 08:13:00,58.3,37.0,29.82,NW,308,11.0,-999.0,45,0.00,,,0.00,416,WeatherHawk,2013-04-16 15:13:00,
2013-04-16 08:15:00,58.5,36.6,29.82,NW,317,11.0,15.0,44,0.00,,,0.00,425,WeatherHawk,2013-04-16 15:15:00,
2013-04-16 08:17:00,58.6,36.2,29.82,NW,305,11.0,15.0,43,0.00,,,0.00,434,WeatherHawk,2013-04-16 15:17:00,
2013-04-16 08:18:00,58.8,36.4,29.82,NW,308,11.0,15.0,43,0.00,,,0.00,438,WeatherHawk,2013-04-16 15:18:00,
2013-04-16 08:20:00,59.0,36.5,29.82,NW,307,11.0,17.0,43,0.00,,,0.00,442,WeatherHawk,2013-04-16 15:20:00,
2013-04-16 08:23:00,59.2,36.7,29.82,NW,304,10.0,17.0,43,0.00,,,0.00,458,WeatherHawk,2013-04-16 15:23:00,
2013-04-16 08:24:00,59.2,36.1,29.82,NW,305,9.0,17.0,42,0.00,,,0.00,460,WeatherHawk,2013-04-16 15:24:00,
2013-04-16 08:25:00,59.4,36.9,29.82,NW,304,11.0,17.0,43,0.00,,,0.00,464,WeatherHawk,2013-04-16 15:25:00,
2013-04-16 08:28:00,59.5,36.4,29.82,NW,313,12.0,17.0,42,0.00,,,0.00,475,WeatherHawk,2013-04-16 15:28:00,
2013-04-16 08:30:00,59.5,35.8,29.82,NW,316,13.0,0.0,41,0.00,,,0.00,483,WeatherHawk,2013-04-16 15:30:00,
2013-04-16 08:31:00,59.7,35.4,29.82,NW,317,16.0,16.0,40,0.00,,,0.00,490,WeatherHawk,2013-04-16 15:31:00,
2013-04-16 08:33:00,59.9,34.9,29.82,NW,319,14.0,16.0,39,0.00,,,0.00,496,WeatherHawk,2013-04-16 15:33:00,
2013-04-16 08:35:00,60.1,35.7,29.82,NW,308,16.0,16.0,40,0.00,,,0.00,505,WeatherHawk,2013-04-16 15:35:00,
2013-04-16 08:38:00,60.1,35.0,29.82,WNW,301,15.0,-999.0,39,0.00,,,0.00,518,WeatherHawk,2013-04-16 15:38:00,
2013-04-16 08:41:00,60.3,35.2,29.82,NW,304,20.0,20.0,39,0.00,,,0.00,526,WeatherHawk,2013-04-16 15:41:00,
2013-04-16 08:43:00,60.3,35.2,29.82,NW,307,15.0,18.0,39,0.00,,,0.00,533,WeatherHawk,2013-04-16 15:43:00,
2013-04-16 08:44:00,60.3,35.8,29.82,WNW,296,14.0,18.0,40,0.00,,,0.00,540,WeatherHawk,2013-04-16 15:44:00,
2013-04-16 08:46:00,60.4,34.7,29.82,NW,307,14.0,18.0,38,0.00,,,0.00,548,WeatherHawk,2013-04-16 15:46:00,
2013-04-16 08:48:00,60.4,34.7,29.82,WNW,303,19.0,19.0,38,0.00,,,0.00,554,WeatherHawk,2013-04-16 15:48:00,
2013-04-16 08:51:00,60.8,35.0,29.82,WNW,292,14.0,20.0,38,0.00,,,0.00,566,WeatherHawk,2013-04-16 15:51:00,
2013-04-16 08:52:00,61.0,34.5,29.83,WNW,294,16.0,20.0,37,0.00,,,0.00,571,WeatherHawk,2013-04-16 15:52:00,
2013-04-16 08:53:00,61.0,34.5,29.82,WNW,299,16.0,20.0,37,0.00,,,0.00,572,WeatherHawk,2013-04-16 15:53:00,
2013-04-16 08:54:00,61.0,35.2,29.83,WNW,296,13.0,20.0,38,0.00,,,0.00,576,WeatherHawk,2013-04-16 15:54:00,
2013-04-16 08:55:00,61.2,34.7,29.83,WNW,289,14.0,20.0,37,0.00,,,0.00,581,WeatherHawk,2013-04-16 15:55:00,
2013-04-16 08:58:00,61.2,36.0,29.83,WNW,303,11.0,20.0,39,0.00,,,0.00,587,WeatherHawk,2013-04-16 15:58:00,
2013-04-16 08:59:00,61.5,35.0,29.83,WNW,295,14.0,19.0,37,0.00,,,0.00,591,WeatherHawk,2013-04-16 15:59:00,
2013-04-16 09:00:00,61.3,33.5,29.83,NW,309,15.0,19.0,35,0.00,,,0.00,598,WeatherHawk,2013-04-16 16:00:00,
2013-04-16 09:04:00,61.5,34.3,29.82,WNW,298,14.0,19.0,36,0.00,,,0.00,609,WeatherHawk,2013-04-16 16:04:00,
2013-04-16 09:05:00,61.5,33.6,29.82,WNW,299,16.0,19.0,35,0.00,,,0.00,615,WeatherHawk,2013-04-16 16:05:00,
2013-04-16 09:06:00,61.5,34.3,29.82,WNW,300,15.0,19.0,36,0.00,,,0.00,622,WeatherHawk,2013-04-16 16:06:00,
2013-04-16 09:07:00,61.5,33.6,29.82,NW,305,17.0,19.0,35,0.00,,,0.00,625,WeatherHawk,2013-04-16 16:07:00,
2013-04-16 09:08:00,61.7,33.0,29.82,NW,310,14.0,19.0,34,0.00,,,0.00,629,WeatherHawk,2013-04-16 16:08:00,
2013-04-16 09:10:00,61.7,33.8,29.82,WNW,303,16.0,21.0,35,0.00,,,0.00,634,WeatherHawk,2013-04-16 16:10:00,
2013-04-16 09:13:00,61.9,33.9,29.82,NW,307,16.0,-999.0,35,0.00,,,0.00,646,WeatherHawk,2013-04-16 16:13:00,
2013-04-16 09:15:00,62.1,34.1,29.83,NW,310,15.0,21.0,35,0.00,,,0.00,652,WeatherHawk,2013-04-16 16:15:00,
2013-04-16 09:17:00,62.2,33.5,29.82,NW,305,16.0,21.0,34,0.00,,,0.00,661,WeatherHawk,2013-04-16 16:17:00,
2013-04-16 09:18:00,62.2,33.5,29.83,NW,304,14.0,-999.0,34,0.00,,,0.00,663,WeatherHawk,2013-04-16 16:18:00,
2013-04-16 09:21:00,62.4,32.9,29.82,NW,304,16.0,19.0,33,0.00,,,0.00,668,WeatherHawk,2013-04-16 16:21:00,
2013-04-16 09:24:00,62.4,32.9,29.83,NW,313,16.0,19.0,33,0.00,,,0.00,686,WeatherHawk,2013-04-16 16:24:00,
2013-04-16 09:26:00,62.4,33.7,29.82,NW,315,17.0,19.0,34,0.00,,,0.00,689,WeatherHawk,2013-04-16 16:26:00,
2013-04-16 09:28:00,62.4,33.7,29.82,NW,310,14.0,19.0,34,0.00,,,0.00,699,WeatherHawk,2013-04-16 16:28:00,
2013-04-16 09:33:00,62.6,32.3,29.82,NW,304,18.0,19.0,32,0.00,,,0.00,715,WeatherHawk,2013-04-16 16:33:00,
2013-04-16 09:34:00,62.6,33.8,29.83,WNW,291,13.0,19.0,34,0.00,,,0.00,720,WeatherHawk,2013-04-16 16:34:00,
2013-04-16 09:37:00,62.8,35.4,29.83,WNW,295,12.0,19.0,36,0.00,,,0.00,728,WeatherHawk,2013-04-16 16:37:00,
2013-04-16 09:38:00,62.8,35.4,29.83,WNW,300,11.0,19.0,36,0.00,,,0.00,726,WeatherHawk,2013-04-16 16:38:00,
2013-04-16 09:42:00,63.1,33.6,29.83,WNW,295,11.0,20.0,33,0.00,,,0.00,743,WeatherHawk,2013-04-16 16:42:00,
2013-04-16 09:43:00,63.3,34.5,29.83,WNW,292,14.0,20.0,34,0.00,,,0.00,744,WeatherHawk,2013-04-16 16:43:00,
2013-04-16 09:48:00,63.9,31.8,29.83,NW,313,15.0,-999.0,30,0.00,,,0.00,765,WeatherHawk,2013-04-16 16:48:00,
2013-04-16 09:49:00,63.9,32.6,29.83,NW,315,13.0,0.0,31,0.00,,,0.00,767,WeatherHawk,2013-04-16 16:49:00,
2013-04-16 09:50:00,63.9,32.6,29.83,WNW,299,13.0,18.0,31,0.00,,,0.00,770,WeatherHawk,2013-04-16 16:50:00,
2013-04-16 09:53:00,63.9,31.8,29.83,NW,306,14.0,18.0,30,0.00,,,0.00,777,WeatherHawk,2013-04-16 16:53:00,
2013-04-16 09:55:00,63.9,33.4,29.83,WNW,297,13.0,18.0,32,0.00,,,0.00,784,WeatherHawk,2013-04-16 16:55:00,
2013-04-16 09:56:00,64.0,32.8,29.83,WNW,294,14.0,18.0,31,0.00,,,0.00,788,WeatherHawk,2013-04-16 16:56:00,
2013-04-16 09:57:00,64.0,32.0,29.83,WNW,303,15.0,18.0,30,0.00,,,0.00,789,WeatherHawk,2013-04-16 16:57:00,
2013-04-16 10:00:00,64.2,32.9,29.83,NW,314,15.0,16.0,31,0.00,,,0.00,801,WeatherHawk,2013-04-16 17:00:00,
2013-04-16 10:02:00,64.2,33.7,29.83,WNW,289,13.0,16.0,32,0.00,,,0.00,808,WeatherHawk,2013-04-16 17:02:00,
2013-04-16 10:03:00,64.4,33.1,29.83,WNW,292,13.0,16.0,31,0.00,,,0.00,806,WeatherHawk,2013-04-16 17:03:00,
2013-04-16 10:07:00,64.2,32.9,29.83,WNW,287,18.0,18.0,31,0.00,,,0.00,822,WeatherHawk,2013-04-16 17:07:00,
2013-04-16 10:08:00,64.2,32.9,29.83,WNW,287,18.0,18.0,31,0.00,,,0.00,822,WeatherHawk,2013-04-16 17:08:00,
2013-04-16 10:13:00,64.6,32.4,29.83,NW,306,12.0,18.0,30,0.00,,,0.00,838,WeatherHawk,2013-04-16 17:13:00,
2013-04-16 10:14:00,64.8,30.9,29.83,WNW,302,14.0,18.0,28,0.00,,,0.00,841,WeatherHawk,2013-04-16 17:14:00,
2013-04-16 10:15:00,64.8,33.4,29.84,NW,305,9.0,18.0,31,0.00,,,0.00,847,WeatherHawk,2013-04-16 17:15:00,
2013-04-16 10:16:00,64.9,33.6,29.83,WNW,296,14.0,18.0,31,0.00,,,0.00,844,WeatherHawk,2013-04-16 17:16:00,
2013-04-16 10:20:00,65.1,32.9,29.84,NW,312,10.0,17.0,30,0.00,,,0.00,855,WeatherHawk,2013-04-16 17:20:00,
2013-04-16 10:21:00,65.1,33.7,29.84,NW,311,13.0,17.0,31,0.00,,,0.00,859,WeatherHawk,2013-04-16 17:21:00,
2013-04-16 10:23:00,65.3,32.2,29.84,NNW,330,15.0,17.0,29,0.00,,,0.00,866,WeatherHawk,2013-04-16 17:23:00,
2013-04-16 10:24:00,65.3,32.2,29.84,NNW,330,17.0,17.0,29,0.00,,,0.00,867,WeatherHawk,2013-04-16 17:24:00,
2013-04-16 10:27:00,64.9,32.8,29.84,NW,323,14.0,17.0,30,0.00,,,0.00,872,WeatherHawk,2013-04-16 17:27:00,
2013-04-16 10:28:00,64.9,31.9,29.84,NW,320,17.0,17.0,29,0.00,,,0.00,878,WeatherHawk,2013-04-16 17:28:00,
2013-04-16 10:29:00,65.1,32.1,29.84,NW,312,19.0,19.0,29,0.00,,,0.00,880,WeatherHawk,2013-04-16 17:29:00,
2013-04-16 10:31:00,65.1,31.2,29.84,WNW,299,14.0,19.0,28,0.00,,,0.00,887,WeatherHawk,2013-04-16 17:31:00,
2013-04-16 10:33:00,65.1,32.1,29.84,NW,305,12.0,19.0,29,0.00,,,0.00,889,WeatherHawk,2013-04-16 17:33:00,
2013-04-16 10:36:00,65.3,30.5,29.84,NW,304,11.0,19.0,27,0.00,,,0.00,901,WeatherHawk,2013-04-16 17:36:00,
2013-04-16 10:38:00,65.3,30.5,29.84,NW,317,15.0,19.0,27,0.00,,,0.00,907,WeatherHawk,2013-04-16 17:38:00,
2013-04-16 10:39:00,65.3,31.4,29.84,NW,318,15.0,19.0,28,0.00,,,0.00,906,WeatherHawk,2013-04-16 17:39:00,
2013-04-16 10:43:00,65.7,30.8,29.84,NW,312,15.0,19.0,27,0.00,,,0.00,917,WeatherHawk,2013-04-16 17:43:00,
2013-04-16 10:46:00,65.8,31.8,29.84,WNW,299,14.0,19.0,28,0.00,,,0.00,921,WeatherHawk,2013-04-16 17:46:00,
2013-04-16 10:48:00,65.8,30.0,29.84,WNW,285,15.0,19.0,26,0.00,,,0.00,927,WeatherHawk,2013-04-16 17:48:00,
2013-04-16 10:50:00,65.8,31.8,29.84,West,281,15.0,19.0,28,0.00,,,0.00,932,WeatherHawk,2013-04-16 17:50:00,
2013-04-16 10:51:00,66.0,31.1,29.84,West,280,14.0,19.0,27,0.00,,,0.00,930,WeatherHawk,2013-04-16 17:51:00,
2013-04-16 10:53:00,66.2,32.1,29.84,WNW,292,13.0,19.0,28,0.00,,,0.00,933,WeatherHawk,2013-04-16 17:53:00,
2013-04-16 10:55:00,66.4,31.4,29.84,WNW,295,14.0,19.0,27,0.00,,,0.00,939,WeatherHawk,2013-04-16 17:55:00,
2013-04-16 10:57:00,66.4,29.5,29.84,NW,312,12.0,19.0,25,0.00,,,0.00,944,WeatherHawk,2013-04-16 17:57:00,
2013-04-16 10:58:00,66.4,30.5,29.84,NW,309,10.0,19.0,26,0.00,,,0.00,943,WeatherHawk,2013-04-16 17:58:00,
2013-04-16 10:59:00,66.7,31.7,29.84,NW,310,11.0,19.0,27,0.00,,,0.00,947,WeatherHawk,2013-04-16 17:59:00,
2013-04-16 11:03:00,66.9,30.9,29.84,NW,308,15.0,-999.0,26,0.00,,,0.00,952,WeatherHawk,2013-04-16 18:03:00,
2013-04-16 11:05:00,67.1,30.1,29.84,NW,308,13.0,19.0,25,0.00,,,0.00,958,WeatherHawk,2013-04-16 18:05:00,
2013-04-16 11:07:00,67.1,32.0,29.84,NNW,328,15.0,19.0,27,0.00,,,0.00,961,WeatherHawk,2013-04-16 18:07:00,
2013-04-16 11:08:00,67.1,32.0,29.84,NW,320,15.0,19.0,27,0.00,,,0.00,963,WeatherHawk,2013-04-16 18:08:00,
2013-04-16 11:12:00,67.6,32.5,29.84,NW,307,13.0,17.0,27,0.00,,,0.00,972,WeatherHawk,2013-04-16 18:12:00,
2013-04-16 11:13:00,67.6,32.5,29.84,NW,307,13.0,-999.0,27,0.00,,,0.00,972,WeatherHawk,2013-04-16 18:13:00,
2013-04-16 11:14:00,67.5,30.4,29.83,NW,308,15.0,17.0,25,0.00,,,0.00,979,WeatherHawk,2013-04-16 18:14:00,
2013-04-16 11:16:00,67.3,29.3,29.83,NW,304,21.0,21.0,24,0.00,,,0.00,983,WeatherHawk,2013-04-16 18:16:00,
2013-04-16 11:18:00,67.1,30.1,29.83,NW,307,17.0,0.0,25,0.00,,,0.00,985,WeatherHawk,2013-04-16 18:18:00,
2013-04-16 11:20:00,67.1,30.1,29.83,WNW,288,18.0,21.0,25,0.00,,,0.00,987,WeatherHawk,2013-04-16 18:20:00,
2013-04-16 11:23:00,67.1,29.1,29.83,WNW,300,15.0,21.0,24,0.00,,,0.00,993,WeatherHawk,2013-04-16 18:23:00,
2013-04-16 11:24:00,67.1,29.1,29.83,NW,305,13.0,21.0,24,0.00,,,0.00,996,WeatherHawk,2013-04-16 18:24:00,
2013-04-16 11:25:00,67.3,29.3,29.83,NW,307,17.0,21.0,24,0.00,,,0.00,993,WeatherHawk,2013-04-16 18:25:00,
2013-04-16 11:29:00,67.8,31.7,29.83,NW,309,15.0,0.0,26,0.00,,,0.00,994,WeatherHawk,2013-04-16 18:29:00,
2013-04-16 11:31:00,68.0,29.9,29.83,NW,307,12.0,19.0,24,0.00,,,0.00,1001,WeatherHawk,2013-04-16 18:31:00,
2013-04-16 11:32:00,67.8,30.7,29.83,NW,312,12.0,19.0,25,0.00,,,0.00,998,WeatherHawk,2013-04-16 18:32:00,
2013-04-16 11:33:00,67.8,30.7,29.83,NW,312,12.0,19.0,25,0.00,,,0.00,998,WeatherHawk,2013-04-16 18:33:00,
2013-04-16 11:37:00,68.0,31.8,29.83,WNW,295,16.0,19.0,26,0.00,,,0.00,1001,WeatherHawk,2013-04-16 18:37:00,
2013-04-16 11:38:00,68.0,33.7,29.83,WNW,301,14.0,0.0,28,0.00,,,0.00,1003,WeatherHawk,2013-04-16 18:38:00,
2013-04-16 11:39:00,68.0,31.8,29.83,WNW,287,14.0,25.0,26,0.00,,,0.00,1011,WeatherHawk,2013-04-16 18:39:00,
2013-04-16 11:43:00,68.9,31.6,29.83,WNW,288,14.0,25.0,25,0.00,,,0.00,1017,WeatherHawk,2013-04-16 18:43:00,
2013-04-16 11:44:00,68.7,31.5,29.83,NW,309,15.0,25.0,25,0.00,,,0.00,1020,WeatherHawk,2013-04-16 18:44:00,
2013-04-16 11:48:00,68.4,31.2,29.83,NW,315,13.0,25.0,25,0.00,,,0.00,1024,WeatherHawk,2013-04-16 18:48:00,
2013-04-16 11:50:00,68.5,33.2,29.83,WNW,302,15.0,18.0,27,0.00,,,0.00,1025,WeatherHawk,2013-04-16 18:50:00,
2013-04-16 11:51:00,68.7,32.4,29.83,WNW,301,16.0,18.0,26,0.00,,,0.00,1022,WeatherHawk,2013-04-16 18:51:00,
2013-04-16 11:52:00,68.7,32.4,29.83,WNW,290,14.0,18.0,26,0.00,,,0.00,1030,WeatherHawk,2013-04-16 18:52:00,
2013-04-16 11:53:00,68.7,32.4,29.83,WNW,284,12.0,18.0,26,0.00,,,0.00,1029,WeatherHawk,2013-04-16 18:53:00,
2013-04-16 11:54:00,68.9,33.5,29.83,WNW,300,14.0,18.0,27,0.00,,,0.00,1029,WeatherHawk,2013-04-16 18:54:00,
2013-04-16 11:58:00,68.9,31.6,29.82,WNW,302,15.0,18.0,25,0.00,,,0.00,1034,WeatherHawk,2013-04-16 18:58:00,
2013-04-16 12:00:00,69.1,33.7,29.82,WNW,291,17.0,18.0,27,0.00,,,0.00,1038,WeatherHawk,2013-04-16 19:00:00,
2013-04-16 12:03:00,68.9,30.6,29.83,WNW,292,15.0,18.0,24,0.00,,,0.00,1039,WeatherHawk,2013-04-16 19:03:00,
2013-04-16 12:04:00,68.9,31.6,29.83,West,281,13.0,18.0,25,0.00,,,0.00,1037,WeatherHawk,2013-04-16 19:04:00,
2013-04-16 12:05:00,68.9,31.6,29.82,WNW,292,13.0,18.0,25,0.00,,,0.00,1038,WeatherHawk,2013-04-16 19:05:00,
2013-04-16 12:08:00,69.1,30.8,29.82,WNW,291,10.0,18.0,24,0.00,,,0.00,1045,WeatherHawk,2013-04-16 19:08:00,
2013-04-16 12:09:00,69.1,30.8,29.82,WNW,303,13.0,18.0,24,0.00,,,0.00,1047,WeatherHawk,2013-04-16 19:09:00,
2013-04-16 12:10:00,69.1,31.8,29.82,WNW,289,12.0,18.0,25,0.00,,,0.00,1047,WeatherHawk,2013-04-16 19:10:00,
2013-04-16 12:13:00,68.9,32.6,29.82,WNW,286,10.0,-999.0,26,0.00,,,0.00,1045,WeatherHawk,2013-04-16 19:13:00,
2013-04-16 12:15:00,69.1,31.8,29.82,WNW,283,12.0,18.0,25,0.00,,,0.00,1045,WeatherHawk,2013-04-16 19:15:00,
2013-04-16 12:16:00,69.3,33.8,29.82,WNW,287,9.0,18.0,27,0.00,,,0.00,1046,WeatherHawk,2013-04-16 19:16:00,
2013-04-16 12:18:00,69.6,34.2,29.82,WNW,289,15.0,18.0,27,0.00,,,0.00,1047,WeatherHawk,2013-04-16 19:18:00,
2013-04-16 12:22:00,70.0,33.5,29.82,WNW,295,17.0,17.0,26,0.00,,,0.00,1050,WeatherHawk,2013-04-16 19:22:00,
2013-04-16 12:23:00,70.0,33.5,29.82,WNW,295,17.0,-999.0,26,0.00,,,0.00,1050,WeatherHawk,2013-04-16 19:23:00,
2013-04-16 12:28:00,69.6,32.2,29.81,West,277,9.0,16.0,25,0.00,,,0.00,1056,WeatherHawk,2013-04-16 19:28:00,
2013-04-16 12:29:00,69.6,31.2,29.81,West,268,12.0,18.0,24,0.00,,,0.00,1050,WeatherHawk,2013-04-16 19:29:00,
2013-04-16 12:33:00,69.6,33.2,29.81,West,280,16.0,-999.0,26,0.00,,,0.00,1054,WeatherHawk,2013-04-16 19:33:00,
2013-04-16 12:37:00,69.6,30.2,29.81,West,273,14.0,18.0,23,0.00,,,0.00,1056,WeatherHawk,2013-04-16 19:37:00,
2013-04-16 12:38:00,69.6,31.2,29.81,West,280,17.0,18.0,24,0.00,,,0.00,1056,WeatherHawk,2013-04-16 19:38:00,
2013-04-16 12:39:00,69.8,30.3,29.81,West,275,11.0,19.0,23,0.00,,,0.00,1057,WeatherHawk,2013-04-16 19:39:00,
2013-04-16 12:40:00,70.0,31.5,29.81,West,280,14.0,19.0,24,0.00,,,0.00,1059,WeatherHawk,2013-04-16 19:40:00,
2013-04-16 12:43:00,70.2,31.7,29.81,WSW,258,15.0,-999.0,24,0.00,,,0.00,1055,WeatherHawk,2013-04-16 19:43:00,
2013-04-16 12:44:00,70.2,30.6,29.81,West,270,14.0,19.0,23,0.00,,,0.00,1060,WeatherHawk,2013-04-16 19:44:00,
2013-04-16 12:47:00,70.0,32.5,29.81,West,279,12.0,19.0,25,0.00,,,0.00,1060,WeatherHawk,2013-04-16 19:47:00,
2013-04-16 12:48:00,70.0,31.5,29.81,West,259,15.0,-999.0,24,0.00,,,0.00,1056,WeatherHawk,2013-04-16 19:48:00,
2013-04-16 12:49:00,70.3,31.8,29.81,West,275,13.0,17.0,24,0.00,,,0.00,1053,WeatherHawk,2013-04-16 19:49:00,
2013-04-16 12:50:00,70.3,29.7,29.81,West,279,8.0,17.0,22,0.00,,,0.00,1050,WeatherHawk,2013-04-16 19:50:00,
2013-04-16 12:51:00,70.3,30.8,29.81,WSW,258,10.0,17.0,23,0.00,,,0.00,1054,WeatherHawk,2013-04-16 19:51:00,
2013-04-16 12:52:00,70.3,31.8,29.81,WNW,289,13.0,17.0,24,0.00,,,0.00,1057,WeatherHawk,2013-04-16 19:52:00,
2013-04-16 12:54:00,70.2,29.5,29.81,NW,323,12.0,17.0,22,0.00,,,0.00,1058,WeatherHawk,2013-04-16 19:54:00,
2013-04-16 12:56:00,70.0,31.5,29.81,NW,308,10.0,17.0,24,0.00,,,0.00,1053,WeatherHawk,2013-04-16 19:56:00,
2013-04-16 12:58:00,70.0,34.5,29.81,WNW,289,14.0,-999.0,27,0.00,,,0.00,1039,WeatherHawk,2013-04-16 19:58:00,
2013-04-16 13:02:00,70.5,30.9,29.81,West,281,14.0,16.0,23,0.00,,,0.00,1052,WeatherHawk,2013-04-16 20:02:00,
2013-04-16 13:03:00,70.3,31.8,29.81,WNW,290,13.0,16.0,24,0.00,,,0.00,1052,WeatherHawk,2013-04-16 20:03:00,
2013-04-16 13:08:00,70.3,29.7,29.81,WNW,300,11.0,16.0,22,0.00,,,0.00,1047,WeatherHawk,2013-04-16 20:08:00,
2013-04-16 13:12:00,70.3,29.7,29.80,West,277,12.0,17.0,22,0.00,,,0.00,1049,WeatherHawk,2013-04-16 20:12:00,
2013-04-16 13:13:00,70.3,29.7,29.80,West,277,12.0,-999.0,22,0.00,,,0.00,1049,WeatherHawk,2013-04-16 20:13:00,
2013-04-16 13:15:00,70.7,30.0,29.81,WNW,289,12.0,17.0,22,0.00,,,0.00,1047,WeatherHawk,2013-04-16 20:15:00,
2013-04-16 13:19:00,71.1,32.4,29.80,West,276,18.0,18.0,24,0.00,,,0.00,1044,WeatherHawk,2013-04-16 20:19:00,
2013-04-16 13:22:00,70.9,29.0,29.80,West,275,11.0,16.0,21,0.00,,,0.00,1042,WeatherHawk,2013-04-16 20:22:00,
2013-04-16 13:24:00,70.3,27.4,29.80,WSW,249,12.0,16.0,20,0.00,,,0.00,1041,WeatherHawk,2013-04-16 20:24:00,
2013-04-16 13:27:00,70.7,28.8,29.80,West,278,10.0,16.0,21,0.00,,,0.00,1037,WeatherHawk,2013-04-16 20:27:00,
2013-04-16 13:28:00,70.5,28.7,29.80,NW,306,8.0,16.0,21,0.00,,,0.00,1035,WeatherHawk,2013-04-16 20:28:00,
2013-04-16 13:30:00,70.9,29.0,29.80,West,261,13.0,18.0,21,0.00,,,0.00,1033,WeatherHawk,2013-04-16 20:30:00,
2013-04-16 13:33:00,71.6,28.4,29.80,WSW,256,8.0,-999.0,20,0.00,,,0.00,1028,WeatherHawk,2013-04-16 20:33:00,
2013-04-16 13:36:00,71.8,28.5,29.80,West,260,12.0,18.0,20,0.00,,,0.00,1022,WeatherHawk,2013-04-16 20:36:00,
2013-04-16 13:37:00,72.0,29.9,29.80,NNW,337,12.0,18.0,21,0.00,,,0.00,1025,WeatherHawk,2013-04-16 20:37:00,
2013-04-16 13:41:00,71.2,29.3,29.80,West,261,9.0,18.0,21,0.00,,,0.00,1025,WeatherHawk,2013-04-16 20:41:00,
2013-04-16 13:42:00,71.1,28.0,29.80,West,280,5.0,18.0,20,0.00,,,0.00,1019,WeatherHawk,2013-04-16 20:42:00,
2013-04-16 13:43:00,71.1,28.0,29.80,West,280,5.0,-999.0,20,0.00,,,0.00,1019,WeatherHawk,2013-04-16 20:43:00,
2013-04-16 13:46:00,71.8,30.9,29.80,NW,311,13.0,18.0,22,0.00,,,0.00,1013,WeatherHawk,2013-04-16 20:46:00,
2013-04-16 13:47:00,71.6,30.7,29.80,WNW,285,9.0,18.0,22,0.00,,,0.00,1013,WeatherHawk,2013-04-16 20:47:00,
2013-04-16 13:48:00,71.6,30.7,29.80,WNW,285,9.0,-999.0,22,0.00,,,0.00,1013,WeatherHawk,2013-04-16 20:48:00,
2013-04-16 13:49:00,71.4,30.6,29.80,WNW,294,10.0,17.0,22,0.00,,,0.00,1010,WeatherHawk,2013-04-16 20:49:00,
2013-04-16 13:53:00,71.4,29.4,29.80,WNW,291,11.0,17.0,21,0.00,,,0.00,1007,WeatherHawk,2013-04-16 20:53:00,
2013-04-16 13:57:00,71.6,30.7,29.80,WNW,282,12.0,17.0,22,0.00,,,0.00,999,WeatherHawk,2013-04-16 20:57:00,
2013-04-16 13:58:00,71.6,29.6,29.80,WNW,295,12.0,17.0,21,0.00,,,0.00,996,WeatherHawk,2013-04-16 20:58:00,
2013-04-16 14:03:00,72.0,28.7,29.80,WNW,294,13.0,-999.0,20,0.00,,,0.00,983,WeatherHawk,2013-04-16 21:03:00,
2013-04-16 14:04:00,72.0,27.4,29.80,WNW,282,9.0,17.0,19,0.00,,,0.00,983,WeatherHawk,2013-04-16 21:04:00,
2013-04-16 14:07:00,72.0,28.7,29.80,WNW,302,14.0,17.0,20,0.00,,,0.00,978,WeatherHawk,2013-04-16 21:07:00,
2013-04-16 14:08:00,71.8,28.5,29.80,WNW,294,10.0,-999.0,20,0.00,,,0.00,975,WeatherHawk,2013-04-16 21:08:00,
2013-04-16 14:09:00,71.6,28.4,29.80,WNW,303,8.0,14.0,20,0.00,,,0.00,972,WeatherHawk,2013-04-16 21:09:00,
2013-04-16 14:12:00,72.0,29.9,29.80,West,274,14.0,14.0,21,0.00,,,0.00,969,WeatherHawk,2013-04-16 21:12:00,
2013-04-16 14:14:00,72.0,28.7,29.80,West,265,10.0,14.0,20,0.00,,,0.00,968,WeatherHawk,2013-04-16 21:14:00,
2013-04-16 14:15:00,71.8,28.5,29.80,West,260,11.0,14.0,20,0.00,,,0.00,966,WeatherHawk,2013-04-16 21:15:00,
2013-04-16 14:17:00,72.1,30.0,29.80,WNW,299,12.0,14.0,21,0.00,,,0.00,960,WeatherHawk,2013-04-16 21:17:00,
2013-04-16 14:18:00,72.3,29.0,29.80,WNW,295,10.0,14.0,20,0.00,,,0.00,958,WeatherHawk,2013-04-16 21:18:00,
2013-04-16 14:22:00,72.0,31.0,29.80,WNW,286,9.0,17.0,22,0.00,,,0.00,953,WeatherHawk,2013-04-16 21:22:00,
2013-04-16 14:23:00,72.0,31.0,29.80,WNW,286,9.0,-999.0,22,0.00,,,0.00,953,WeatherHawk,2013-04-16 21:23:00,
2013-04-16 14:28:00,72.0,31.0,29.79,West,279,10.0,17.0,22,0.00,,,0.00,938,WeatherHawk,2013-04-16 21:28:00,
2013-04-16 14:29:00,72.1,28.8,29.79,NW,318,19.0,19.0,20,0.00,,,0.00,939,WeatherHawk,2013-04-16 21:29:00,
2013-04-16 14:30:00,72.0,29.9,29.79,WNW,292,12.0,15.0,21,0.00,,,0.00,940,WeatherHawk,2013-04-16 21:30:00,
2013-04-16 14:33:00,72.1,28.8,29.79,WNW,288,9.0,15.0,20,0.00,,,0.00,928,WeatherHawk,2013-04-16 21:33:00,
2013-04-16 14:35:00,72.1,28.8,29.79,West,274,10.0,15.0,20,0.00,,,0.00,925,WeatherHawk,2013-04-16 21:35:00,
2013-04-16 14:36:00,72.0,28.7,29.79,West,269,8.0,15.0,20,0.00,,,0.00,919,WeatherHawk,2013-04-16 21:36:00,
2013-04-16 14:38:00,71.8,29.7,29.79,West,261,9.0,-999.0,21,0.00,,,0.00,919,WeatherHawk,2013-04-16 21:38:00,
2013-04-16 14:41:00,72.5,30.3,29.79,WNW,285,13.0,19.0,21,0.00,,,0.00,913,WeatherHawk,2013-04-16 21:41:00,
2013-04-16 14:43:00,72.7,29.3,29.79,WNW,287,13.0,-999.0,20,0.00,,,0.00,906,WeatherHawk,2013-04-16 21:43:00,
2013-04-16 14:47:00,72.3,27.7,29.78,WSW,238,6.0,19.0,19,0.00,,,0.00,901,WeatherHawk,2013-04-16 21:47:00,
2013-04-16 14:48:00,72.3,29.0,29.78,WSW,255,4.0,-999.0,20,0.00,,,0.00,896,WeatherHawk,2013-04-16 21:48:00,
2013-04-16 14:49:00,72.3,27.7,29.78,WNW,289,5.0,16.0,19,0.00,,,0.00,889,WeatherHawk,2013-04-16 21:49:00,
2013-04-16 14:52:00,73.0,30.8,29.78,West,274,14.0,16.0,21,0.00,,,0.00,886,WeatherHawk,2013-04-16 21:52:00,
2013-04-16 14:56:00,72.9,30.6,29.78,NW,306,13.0,16.0,21,0.00,,,0.00,876,WeatherHawk,2013-04-16 21:56:00,
2013-04-16 14:57:00,73.0,30.8,29.78,WNW,283,13.0,16.0,21,0.00,,,0.00,875,WeatherHawk,2013-04-16 21:57:00,
2013-04-16 14:59:00,72.7,30.5,29.78,West,276,14.0,16.0,21,0.00,,,0.00,864,WeatherHawk,2013-04-16 21:59:00,
2013-04-16 15:00:00,72.5,27.9,29.78,West,275,13.0,16.0,19,0.00,,,0.00,861,WeatherHawk,2013-04-16 22:00:00,
2013-04-16 15:02:00,72.1,28.8,29.78,WSW,255,9.0,16.0,20,0.00,,,0.00,856,WeatherHawk,2013-04-16 22:02:00,
2013-04-16 15:03:00,72.1,27.6,29.78,WSW,257,7.0,16.0,19,0.00,,,0.00,852,WeatherHawk,2013-04-16 22:03:00,
2013-04-16 15:08:00,72.3,30.2,29.78,WNW,297,12.0,16.0,21,0.00,,,0.00,840,WeatherHawk,2013-04-16 22:08:00,
2013-04-16 15:09:00,72.1,30.0,29.78,WNW,295,11.0,15.0,21,0.00,,,0.00,838,WeatherHawk,2013-04-16 22:09:00,
2013-04-16 15:10:00,72.3,30.2,29.78,WNW,301,13.0,15.0,21,0.00,,,0.00,835,WeatherHawk,2013-04-16 22:10:00,
2013-04-16 15:12:00,72.5,29.1,29.77,NW,308,11.0,15.0,20,0.00,,,0.00,828,WeatherHawk,2013-04-16 22:12:00,
2013-04-16 15:14:00,72.5,29.1,29.77,WNW,287,10.0,15.0,20,0.00,,,0.00,824,WeatherHawk,2013-04-16 22:14:00,
2013-04-16 15:15:00,72.3,30.2,29.77,NW,306,6.0,15.0,21,0.00,,,0.00,821,WeatherHawk,2013-04-16 22:15:00,
2013-04-16 15:17:00,72.5,30.3,29.77,WNW,299,13.0,15.0,21,0.00,,,0.00,812,WeatherHawk,2013-04-16 22:17:00,
2013-04-16 15:18:00,72.5,30.3,29.77,NW,317,8.0,15.0,21,0.00,,,0.00,811,WeatherHawk,2013-04-16 22:18:00,
2013-04-16 15:23:00,72.9,30.6,29.77,West,280,14.0,-999.0,21,0.00,,,0.00,798,WeatherHawk,2013-04-16 22:23:00,
2013-04-16 15:24:00,72.7,30.5,29.77,West,262,12.0,15.0,21,0.00,,,0.00,793,WeatherHawk,2013-04-16 22:24:00,
2013-04-16 15:25:00,72.7,30.5,29.77,West,262,14.0,15.0,21,0.00,,,0.00,788,WeatherHawk,2013-04-16 22:25:00,
2013-04-16 15:27:00,72.7,31.6,29.77,WNW,284,15.0,15.0,22,0.00,,,0.00,786,WeatherHawk,2013-04-16 22:27:00,
2013-04-16 15:30:00,72.7,30.5,29.77,WNW,292,13.0,19.0,21,0.00,,,0.00,778,WeatherHawk,2013-04-16 22:30:00,
2013-04-16 15:32:00,72.5,29.1,29.77,West,281,12.0,19.0,20,0.00,,,0.00,770,WeatherHawk,2013-04-16 22:32:00,
2013-04-16 15:33:00,72.5,29.1,29.77,West,281,12.0,19.0,20,0.00,,,0.00,770,WeatherHawk,2013-04-16 22:33:00,
2013-04-16 15:36:00,72.3,27.7,29.77,WNW,303,8.0,19.0,19,0.00,,,0.00,760,WeatherHawk,2013-04-16 22:36:00,
2013-04-16 15:38:00,72.1,27.6,29.77,WNW,296,7.0,19.0,19,0.00,,,0.00,754,WeatherHawk,2013-04-16 22:38:00,
2013-04-16 15:39:00,72.3,29.0,29.76,WNW,287,9.0,16.0,20,0.00,,,0.00,743,WeatherHawk,2013-04-16 22:39:00,
2013-04-16 15:43:00,72.7,31.6,29.76,WSW,253,6.0,-999.0,22,0.00,,,0.00,735,WeatherHawk,2013-04-16 22:43:00,
2013-04-16 15:44:00,72.9,31.8,29.76,West,264,11.0,16.0,22,0.00,,,0.00,732,WeatherHawk,2013-04-16 22:44:00,
2013-04-16 15:46:00,73.0,31.9,29.76,West,277,12.0,16.0,22,0.00,,,0.00,724,WeatherHawk,2013-04-16 22:46:00,
2013-04-16 15:47:00,73.0,30.8,29.76,WNW,290,14.0,16.0,21,0.00,,,0.00,722,WeatherHawk,2013-04-16 22:47:00,
2013-04-16 15:48:00,73.0,28.3,29.76,WNW,290,13.0,16.0,19,0.00,,,0.00,716,WeatherHawk,2013-04-16 22:48:00,
2013-04-16 15:50:00,72.9,30.6,29.76,WNW,297,11.0,15.0,21,0.00,,,0.00,713,WeatherHawk,2013-04-16 22:50:00,
2013-04-16 15:52:00,73.0,30.8,29.76,WNW,295,10.0,15.0,21,0.00,,,0.00,705,WeatherHawk,2013-04-16 22:52:00,
2013-04-16 15:54:00,73.2,29.7,29.76,West,270,10.0,15.0,20,0.00,,,0.00,696,WeatherHawk,2013-04-16 22:54:00,
2013-04-16 15:58:00,73.0,30.8,29.76,NW,319,9.0,15.0,21,0.00,,,0.00,679,WeatherHawk,2013-04-16 22:58:00,
2013-04-16 16:03:00,73.6,33.5,29.75,West,277,11.0,14.0,23,0.00,,,0.00,666,WeatherHawk,2013-04-16 23:03:00,
2013-04-16 16:04:00,73.6,30.0,29.75,West,273,13.0,14.0,20,0.00,,,0.00,662,WeatherHawk,2013-04-16 23:04:00,
2013-04-16 16:05:00,73.6,30.0,29.75,West,266,10.0,14.0,20,0.00,,,0.00,658,WeatherHawk,2013-04-16 23:05:00,
2013-04-16 16:08:00,73.4,28.6,29.75,WNW,292,12.0,14.0,19,0.00,,,0.00,646,WeatherHawk,2013-04-16 23:08:00,
2013-04-16 16:09:00,73.2,28.5,29.75,NW,308,11.0,0.0,19,0.00,,,0.00,644,WeatherHawk,2013-04-16 23:09:00,
2013-04-16 16:12:00,73.0,33.0,29.75,WNW,289,9.0,15.0,23,0.00,,,0.00,632,WeatherHawk,2013-04-16 23:12:00,
2013-04-16 16:14:00,73.6,32.4,29.75,West,271,11.0,15.0,22,0.00,,,0.00,622,WeatherHawk,2013-04-16 23:14:00,
2013-04-16 16:15:00,73.6,32.4,29.75,West,270,10.0,15.0,22,0.00,,,0.00,620,WeatherHawk,2013-04-16 23:15:00,
2013-04-16 16:18:00,73.8,30.2,29.75,West,274,12.0,15.0,20,0.00,,,0.00,610,WeatherHawk,2013-04-16 23:18:00,
2013-04-16 16:20:00,73.8,31.4,29.75,WNW,295,14.0,14.0,21,0.00,,,0.00,599,WeatherHawk,2013-04-16 23:20:00,
2013-04-16 16:22:00,73.6,31.2,29.75,West,277,10.0,14.0,21,0.00,,,0.00,594,WeatherHawk,2013-04-16 23:22:00,
2013-04-16 16:23:00,73.6,31.2,29.75,West,277,10.0,14.0,21,0.00,,,0.00,594,WeatherHawk,2013-04-16 23:23:00,
2013-04-16 16:24:00,73.4,29.9,29.75,WNW,286,14.0,14.0,20,0.00,,,0.00,584,WeatherHawk,2013-04-16 23:24:00,
2013-04-16 16:26:00,73.4,32.2,29.75,WNW,284,11.0,14.0,22,0.00,,,0.00,575,WeatherHawk,2013-04-16 23:26:00,
2013-04-16 16:29:00,73.8,34.7,29.75,WNW,283,8.0,15.0,24,0.00,,,0.00,566,WeatherHawk,2013-04-16 23:29:00,
2013-04-16 16:31:00,73.8,33.6,29.75,West,274,8.0,15.0,23,0.00,,,0.00,558,WeatherHawk,2013-04-16 23:31:00,
2013-04-16 16:32:00,73.8,32.5,29.75,West,276,12.0,15.0,22,0.00,,,0.00,555,WeatherHawk,2013-04-16 23:32:00,
2013-04-16 16:33:00,73.8,32.5,29.75,West,276,12.0,-999.0,22,0.00,,,0.00,555,WeatherHawk,2013-04-16 23:33:00,
2013-04-16 16:34:00,73.4,31.1,29.75,WNW,292,10.0,15.0,21,0.00,,,0.00,547,WeatherHawk,2013-04-16 23:34:00,
2013-04-16 16:38:00,73.4,32.2,29.75,West,272,12.0,-999.0,22,0.00,,,0.00,536,WeatherHawk,2013-04-16 23:38:00,
2013-04-16 16:42:00,73.4,32.2,29.75,West,267,14.0,17.0,22,0.00,,,0.00,515,WeatherHawk,2013-04-16 23:42:00,
2013-04-16 16:43:00,73.2,32.1,29.75,West,266,11.0,-999.0,22,0.00,,,0.00,511,WeatherHawk,2013-04-16 23:43:00,
2013-04-16 16:45:00,73.4,32.2,29.75,West,269,11.0,17.0,22,0.00,,,0.00,503,WeatherHawk,2013-04-16 23:45:00,
2013-04-16 16:48:00,73.2,32.1,29.75,West,271,13.0,17.0,22,0.00,,,0.00,495,WeatherHawk,2013-04-16 23:48:00,
2013-04-16 16:49:00,73.4,33.3,29.75,WNW,291,8.0,16.0,23,0.00,,,0.00,489,WeatherHawk,2013-04-16 23:49:00,
2013-04-16 16:50:00,73.6,32.4,29.75,WNW,290,12.0,16.0,22,0.00,,,0.00,483,WeatherHawk,2013-04-16 23:50:00,
2013-04-16 16:53:00,73.2,35.3,29.75,West,280,8.0,16.0,25,0.00,,,0.00,475,WeatherHawk,2013-04-16 23:53:00,
2013-04-16 16:54:00,73.2,32.1,29.75,West,279,14.0,16.0,22,0.00,,,0.00,472,WeatherHawk,2013-04-16 23:54:00,
2013-04-16 16:56:00,73.4,32.2,29.75,West,260,11.0,16.0,22,0.00,,,0.00,463,WeatherHawk,2013-04-16 23:56:00,
2013-04-16 16:58:00,73.6,30.0,29.75,West,259,12.0,-999.0,20,0.00,,,0.00,457,WeatherHawk,2013-04-16 23:58:00,
2013-04-16 17:00:00,73.6,33.5,29.75,West,273,12.0,14.0,23,0.00,,,0.00,448,WeatherHawk,2013-04-17 00:00:00,
2013-04-16 17:01:00,73.4,31.1,29.76,WNW,282,9.0,14.0,21,0.00,,,0.00,442,WeatherHawk,2013-04-17 00:01:00,
2013-04-16 17:02:00,73.4,32.2,29.75,WNW,295,11.0,14.0,22,0.00,,,0.00,439,WeatherHawk,2013-04-17 00:02:00,
2013-04-16 17:05:00,73.6,32.4,29.76,West,271,10.0,14.0,22,0.00,,,0.00,424,WeatherHawk,2013-04-17 00:05:00,
2013-04-16 17:06:00,73.6,32.4,29.76,West,267,11.0,14.0,22,0.00,,,0.00,420,WeatherHawk,2013-04-17 00:06:00,
2013-04-16 17:07:00,73.4,33.3,29.76,West,279,9.0,14.0,23,0.00,,,0.00,417,WeatherHawk,2013-04-17 00:07:00,
2013-04-16 17:08:00,73.2,32.1,29.76,WNW,283,12.0,14.0,22,0.00,,,0.00,414,WeatherHawk,2013-04-17 00:08:00,
2013-04-16 17:12:00,72.9,30.6,29.76,West,278,10.0,14.0,21,0.00,,,0.00,393,WeatherHawk,2013-04-17 00:12:00,
2013-04-16 17:13:00,72.9,30.6,29.76,West,278,10.0,14.0,21,0.00,,,0.00,393,WeatherHawk,2013-04-17 00:13:00,
2013-04-16 17:15:00,73.2,35.3,29.76,West,271,9.0,14.0,25,0.00,,,0.00,380,WeatherHawk,2013-04-17 00:15:00,
2013-04-16 17:16:00,73.2,33.2,29.76,WNW,290,7.0,14.0,23,0.00,,,0.00,377,WeatherHawk,2013-04-17 00:16:00,
2013-04-16 17:18:00,73.0,34.1,29.76,WNW,285,7.0,14.0,24,0.00,,,0.00,371,WeatherHawk,2013-04-17 00:18:00,
2013-04-16 17:23:00,73.2,30.9,29.76,West,267,11.0,13.0,21,0.00,,,0.00,352,WeatherHawk,2013-04-17 00:23:00,
2013-04-16 17:26:00,73.6,34.6,29.75,WNW,293,6.0,13.0,24,0.00,,,0.00,333,WeatherHawk,2013-04-17 00:26:00,
2013-04-16 17:28:00,73.4,34.4,29.75,WNW,303,11.0,13.0,24,0.00,,,0.00,330,WeatherHawk,2013-04-17 00:28:00,
2013-04-16 17:30:00,73.2,37.2,29.75,WNW,290,10.0,11.0,27,0.00,,,0.00,322,WeatherHawk,2013-04-17 00:30:00,
2013-04-16 17:32:00,72.9,36.9,29.75,WNW,291,10.0,11.0,27,0.00,,,0.00,314,WeatherHawk,2013-04-17 00:32:00,
2013-04-16 17:33:00,72.9,36.9,29.75,WNW,291,10.0,11.0,27,0.00,,,0.00,314,WeatherHawk,2013-04-17 00:33:00,
2013-04-16 17:34:00,72.9,36.9,29.75,WNW,286,10.0,11.0,27,0.00,,,0.00,310,WeatherHawk,2013-04-17 00:34:00,
2013-04-16 17:35:00,72.7,35.8,29.75,WNW,291,11.0,11.0,26,0.00,,,0.00,300,WeatherHawk,2013-04-17 00:35:00,
2013-04-16 17:38:00,72.5,37.5,29.75,WNW,282,9.0,-999.0,28,0.00,,,0.00,295,WeatherHawk,2013-04-17 00:38:00,
2013-04-16 17:39:00,72.5,35.7,29.75,WNW,291,11.0,0.0,26,0.00,,,0.00,285,WeatherHawk,2013-04-17 00:39:00,
2013-04-16 17:43:00,72.1,36.3,29.75,WNW,284,9.0,-999.0,27,0.00,,,0.00,277,WeatherHawk,2013-04-17 00:43:00,
2013-04-16 17:44:00,72.0,36.1,29.75,WNW,282,9.0,14.0,27,0.00,,,0.00,269,WeatherHawk,2013-04-17 00:44:00,
2013-04-16 17:45:00,71.8,35.0,29.75,WNW,282,12.0,14.0,26,0.00,,,0.00,265,WeatherHawk,2013-04-17 00:45:00,
2013-04-16 17:48:00,71.8,34.1,29.75,WNW,286,12.0,-999.0,25,0.00,,,0.00,251,WeatherHawk,2013-04-17 00:48:00,
2013-04-16 17:51:00,71.6,33.9,29.75,WNW,283,11.0,14.0,25,0.00,,,0.00,235,WeatherHawk,2013-04-17 00:51:00,
2013-04-16 17:53:00,71.6,34.9,29.75,WNW,289,12.0,14.0,26,0.00,,,0.00,223,WeatherHawk,2013-04-17 00:53:00,
2013-04-16 17:55:00,71.2,37.3,29.75,WNW,290,8.0,14.0,29,0.00,,,0.00,216,WeatherHawk,2013-04-17 00:55:00,
2013-04-16 17:57:00,71.2,36.5,29.75,WNW,295,9.0,14.0,28,0.00,,,0.00,210,WeatherHawk,2013-04-17 00:57:00,
2013-04-16 17:58:00,71.2,35.5,29.75,WNW,297,9.0,14.0,27,0.00,,,0.00,207,WeatherHawk,2013-04-17 00:58:00,
2013-04-16 17:59:00,71.2,35.5,29.75,WNW,299,9.0,13.0,27,0.00,,,0.00,202,WeatherHawk,2013-04-17 00:59:00,
2013-04-16 18:03:00,71.1,36.3,29.75,WNW,299,9.0,13.0,28,0.00,,,0.00,191,WeatherHawk,2013-04-17 01:03:00,
2013-04-16 18:06:00,71.1,36.3,29.75,NW,307,8.0,13.0,28,0.00,,,0.00,179,WeatherHawk,2013-04-17 01:06:00,
2013-04-16 18:08:00,71.1,36.3,29.75,NW,306,9.0,13.0,28,0.00,,,0.00,175,WeatherHawk,2013-04-17 01:08:00,
2013-04-16 18:13:00,70.9,34.3,29.75,WNW,300,12.0,12.0,26,0.00,,,0.00,152,WeatherHawk,2013-04-17 01:13:00,
2013-04-16 18:14:00,70.9,35.2,29.75,WNW,299,11.0,11.0,27,0.00,,,0.00,151,WeatherHawk,2013-04-17 01:14:00,
2013-04-16 18:17:00,70.5,35.8,29.76,WNW,296,11.0,11.0,28,0.00,,,0.00,140,WeatherHawk,2013-04-17 01:17:00,
2013-04-16 18:18:00,70.5,35.8,29.76,WNW,296,11.0,11.0,28,0.00,,,0.00,140,WeatherHawk,2013-04-17 01:18:00,
2013-04-16 18:19:00,70.2,36.4,29.76,WNW,292,8.0,13.0,29,0.00,,,0.00,134,WeatherHawk,2013-04-17 01:19:00,
2013-04-16 18:23:00,69.8,37.8,29.76,WNW,298,9.0,-999.0,31,0.00,,,0.00,121,WeatherHawk,2013-04-17 01:23:00,
2013-04-16 18:27:00,69.3,38.1,29.76,WNW,297,7.0,13.0,32,0.00,,,0.00,107,WeatherHawk,2013-04-17 01:27:00,
2013-04-16 18:28:00,69.3,38.1,29.76,WNW,297,7.0,13.0,32,0.00,,,0.00,107,WeatherHawk,2013-04-17 01:28:00,
2013-04-16 18:30:00,68.9,37.0,29.76,WNW,303,9.0,11.0,31,0.00,,,0.00,98,WeatherHawk,2013-04-17 01:30:00,
2013-04-16 18:33:00,68.7,37.7,29.76,NW,308,9.0,11.0,32,0.00,,,0.00,89,WeatherHawk,2013-04-17 01:33:00,
2013-04-16 18:34:00,68.7,36.9,29.76,WNW,303,10.0,11.0,31,0.00,,,0.00,81,WeatherHawk,2013-04-17 01:34:00,
2013-04-16 18:38:00,68.5,35.9,29.76,NW,308,10.0,11.0,30,0.00,,,0.00,71,WeatherHawk,2013-04-17 01:38:00,
2013-04-16 18:40:00,68.5,36.7,29.76,NW,316,9.0,0.0,31,0.00,,,0.00,64,WeatherHawk,2013-04-17 01:40:00,
2013-04-16 18:43:00,68.2,36.4,29.76,NW,308,9.0,0.0,31,0.00,,,0.00,55,WeatherHawk,2013-04-17 01:43:00,
2013-04-16 18:46:00,67.8,37.7,29.76,NW,316,7.0,0.0,33,0.00,,,0.00,46,WeatherHawk,2013-04-17 01:46:00,
2013-04-16 18:48:00,67.8,37.7,29.76,NW,325,8.0,0.0,33,0.00,,,0.00,46,WeatherHawk,2013-04-17 01:48:00,
2013-04-16 18:53:00,67.5,37.3,29.76,NW,317,7.0,10.0,33,0.00,,,0.00,29,WeatherHawk,2013-04-17 01:53:00,
2013-04-16 18:54:00,67.3,37.9,29.76,NW,323,6.0,10.0,34,0.00,,,0.00,27,WeatherHawk,2013-04-17 01:54:00,
2013-04-16 18:55:00,67.1,37.8,29.76,NW,319,6.0,10.0,34,0.00,,,0.00,22,WeatherHawk,2013-04-17 01:55:00,
2013-04-16 18:58:00,66.7,37.5,29.76,NW,320,7.0,-999.0,34,0.00,,,0.00,19,WeatherHawk,2013-04-17 01:58:00,
2013-04-16 18:59:00,66.6,38.1,29.76,NW,320,7.0,10.0,35,0.00,,,0.00,16,WeatherHawk,2013-04-17 01:59:00,
2013-04-16 19:00:00,66.6,38.1,29.76,NW,321,6.0,10.0,35,0.00,,,0.00,14,WeatherHawk,2013-04-17 02:00:00,
2013-04-16 19:03:00,66.4,37.9,29.76,NW,309,7.0,-999.0,35,0.00,,,0.00,10,WeatherHawk,2013-04-17 02:03:00,
2013-04-16 19:05:00,66.0,38.3,29.76,NW,309,8.0,10.0,36,0.00,,,0.00,8,WeatherHawk,2013-04-17 02:05:00,
2013-04-16 19:06:00,66.0,38.3,29.76,NW,313,6.0,10.0,36,0.00,,,0.00,7,WeatherHawk,2013-04-17 02:06:00,
2013-04-16 19:07:00,65.8,38.1,29.76,NW,315,7.0,10.0,36,0.00,,,0.00,6,WeatherHawk,2013-04-17 02:07:00,
2013-04-16 19:08:00,65.8,38.1,29.76,NW,315,7.0,10.0,36,0.00,,,0.00,6,WeatherHawk,2013-04-17 02:08:00,
2013-04-16 19:10:00,65.5,37.8,29.76,NW,314,6.0,0.0,36,0.00,,,0.00,5,WeatherHawk,2013-04-17 02:10:00,
2013-04-16 19:12:00,65.5,38.5,29.76,NW,312,7.0,0.0,37,0.00,,,0.00,4,WeatherHawk,2013-04-17 02:12:00,
2013-04-16 19:13:00,65.3,38.4,29.76,NW,315,7.0,-999.0,37,0.00,,,0.00,3,WeatherHawk,2013-04-17 02:13:00,
2013-04-16 19:17:00,65.3,37.7,29.76,NW,314,7.0,0.0,36,0.00,,,0.00,1,WeatherHawk,2013-04-17 02:17:00,
2013-04-16 19:18:00,65.3,37.7,29.76,NW,317,7.0,0.0,36,0.00,,,0.00,2,WeatherHawk,2013-04-17 02:18:00,
2013-04-16 19:19:00,65.1,37.5,29.76,NW,311,9.0,9.0,36,0.00,,,0.00,1,WeatherHawk,2013-04-17 02:19:00,
2013-04-16 19:23:00,65.1,37.5,29.76,NW,308,9.0,9.0,36,0.00,,,0.00,0,WeatherHawk,2013-04-17 02:23:00,
2013-04-16 19:24:00,65.1,37.5,29.76,NW,309,8.0,9.0,36,0.00,,,0.00,1,WeatherHawk,2013-04-17 02:24:00,
2013-04-16 19:25:00,65.1,37.5,29.76,NW,315,9.0,9.0,36,0.00,,,0.00,0,WeatherHawk,2013-04-17 02:25:00,
2013-04-16 19:28:00,64.9,38.0,29.76,NW,306,7.0,-999.0,37,0.00,,,0.00,0,WeatherHawk,2013-04-17 02:28:00,
2013-04-16 19:29:00,64.6,37.7,29.76,NW,311,6.0,0.0,37,0.00,,,0.00,0,WeatherHawk,2013-04-17 02:29:00,
2013-04-16 19:31:00,64.6,37.7,29.76,NW,310,7.0,0.0,37,0.00,,,0.00,0,WeatherHawk,2013-04-17 02:31:00,
2013-04-16 19:33:00,64.4,37.6,29.77,WNW,298,6.0,0.0,37,0.00,,,0.00,0,WeatherHawk,2013-04-17 02:33:00,
2013-04-16 19:34:00,64.2,38.1,29.77,WNW,284,6.0,0.0,38,0.00,,,0.00,1,WeatherHawk,2013-04-17 02:34:00,
2013-04-16 19:38:00,63.9,40.9,29.77,West,274,5.0,0.0,43,0.00,,,0.00,0,WeatherHawk,2013-04-17 02:38:00,
2013-04-16 19:41:00,63.0,39.5,29.77,WNW,288,9.0,9.0,42,0.00,,,0.00,0,WeatherHawk,2013-04-17 02:41:00,
2013-04-16 19:43:00,62.8,38.7,29.77,WNW,289,8.0,-999.0,41,0.00,,,0.00,0,WeatherHawk,2013-04-17 02:43:00,
2013-04-16 19:45:00,62.6,38.6,29.77,WNW,291,9.0,9.0,41,0.00,,,0.00,0,WeatherHawk,2013-04-17 02:45:00,
2013-04-16 19:48:00,62.4,38.4,29.77,WNW,292,10.0,10.0,41,0.00,,,0.00,0,WeatherHawk,2013-04-17 02:48:00,
2013-04-16 19:49:00,62.2,38.2,29.77,WNW,286,8.0,12.0,41,0.00,,,0.00,0,WeatherHawk,2013-04-17 02:49:00,
2013-04-16 19:51:00,62.2,37.6,29.77,WNW,287,13.0,13.0,40,0.00,,,0.00,1,WeatherHawk,2013-04-17 02:51:00,
2013-04-16 19:54:00,62.4,37.8,29.77,WNW,287,11.0,12.0,40,0.00,,,0.00,0,WeatherHawk,2013-04-17 02:54:00,
2013-04-16 19:58:00,62.4,37.8,29.77,WNW,287,11.0,12.0,40,0.00,,,0.00,0,WeatherHawk,2013-04-17 02:58:00,
2013-04-16 19:59:00,62.2,37.6,29.78,WNW,287,13.0,0.0,40,0.00,,,0.00,0,WeatherHawk,2013-04-17 02:59:00,
2013-04-16 20:01:00,62.2,37.6,29.78,WNW,288,13.0,0.0,40,0.00,,,0.00,0,WeatherHawk,2013-04-17 03:01:00,
2013-04-16 20:03:00,62.1,37.5,29.78,WNW,291,11.0,0.0,40,0.00,,,0.00,0,WeatherHawk,2013-04-17 03:03:00,
2013-04-16 20:04:00,62.1,38.1,29.78,WNW,292,9.0,0.0,41,0.00,,,0.00,0,WeatherHawk,2013-04-17 03:04:00,
2013-04-16 20:07:00,61.9,37.9,29.78,WNW,289,11.0,0.0,41,0.00,,,0.00,1,WeatherHawk,2013-04-17 03:07:00,
2013-04-16 20:09:00,61.7,37.8,29.78,WNW,289,12.0,14.0,41,0.00,,,0.00,0,WeatherHawk,2013-04-17 03:09:00,
2013-04-16 20:11:00,61.9,37.3,29.79,WNW,288,10.0,14.0,40,0.00,,,0.00,0,WeatherHawk,2013-04-17 03:11:00,
2013-04-16 20:13:00,61.9,37.3,29.79,WNW,288,12.0,14.0,40,0.00,,,0.00,0,WeatherHawk,2013-04-17 03:13:00,
2013-04-16 20:14:00,61.9,37.3,29.79,WNW,286,10.0,14.0,40,0.00,,,0.00,0,WeatherHawk,2013-04-17 03:14:00,
2013-04-16 20:15:00,61.7,37.8,29.79,WNW,286,11.0,14.0,41,0.00,,,0.00,1,WeatherHawk,2013-04-17 03:15:00,
2013-04-16 20:18:00,61.7,37.1,29.79,WNW,289,12.0,0.0,40,0.00,,,0.00,0,WeatherHawk,2013-04-17 03:18:00,
2013-04-16 20:20:00,61.5,37.6,29.79,West,280,10.0,16.0,41,0.00,,,0.00,0,WeatherHawk,2013-04-17 03:20:00,
2013-04-16 20:22:00,61.3,36.8,29.79,WNW,286,11.0,16.0,40,0.00,,,0.00,0,WeatherHawk,2013-04-17 03:22:00,
2013-04-16 20:26:00,61.5,36.3,29.79,WNW,292,14.0,16.0,39,0.00,,,0.00,0,WeatherHawk,2013-04-17 03:26:00,
2013-04-16 20:27:00,61.3,36.2,29.79,WNW,290,13.0,16.0,39,0.00,,,0.00,0,WeatherHawk,2013-04-17 03:27:00,
2013-04-16 20:28:00,61.3,36.2,29.79,WNW,289,15.0,19.0,39,0.00,,,0.00,0,WeatherHawk,2013-04-17 03:28:00,
2013-04-16 20:29:00,61.3,36.2,29.79,WNW,287,15.0,19.0,39,0.00,,,0.00,0,WeatherHawk,2013-04-17 03:29:00,
2013-04-16 20:32:00,61.3,36.2,29.79,WNW,289,21.0,-999.0,39,0.00,,,0.00,1,WeatherHawk,2013-04-17 03:32:00,
2013-04-16 20:33:00,61.3,36.2,29.80,WNW,296,20.0,20.0,39,0.00,,,0.00,0,WeatherHawk,2013-04-17 03:33:00,
2013-04-16 20:35:00,61.2,36.0,29.80,WNW,294,19.0,19.0,39,0.00,,,0.00,0,WeatherHawk,2013-04-17 03:35:00,
2013-04-16 20:36:00,61.2,36.6,29.80,WNW,287,15.0,19.0,40,0.00,,,0.00,0,WeatherHawk,2013-04-17 03:36:00,
2013-04-16 20:37:00,61.0,35.8,29.80,WNW,291,17.0,-999.0,39,0.00,,,0.00,0,WeatherHawk,2013-04-17 03:37:00,
2013-04-16 20:40:00,61.0,36.5,29.80,WNW,296,16.0,21.0,40,0.00,,,0.00,0,WeatherHawk,2013-04-17 03:40:00,
2013-04-16 20:42:00,61.0,35.2,29.80,WNW,298,23.0,23.0,38,0.00,,,0.00,0,WeatherHawk,2013-04-17 03:42:00,
2013-04-16 20:44:00,61.0,35.8,29.80,WNW,291,17.0,-999.0,39,0.00,,,0.00,0,WeatherHawk,2013-04-17 03:44:00,
2013-04-16 20:46:00,61.0,35.2,29.80,WNW,299,21.0,21.0,38,0.00,,,0.00,0,WeatherHawk,2013-04-17 03:46:00,
2013-04-16 20:48:00,61.0,35.8,29.81,WNW,301,15.0,24.0,39,0.00,,,0.00,0,WeatherHawk,2013-04-17 03:48:00,
2013-04-16 20:53:00,60.6,36.2,29.81,WNW,296,14.0,24.0,40,0.00,,,0.00,0,WeatherHawk,2013-04-17 03:53:00,
2013-04-16 20:56:00,60.4,36.6,29.81,WNW,298,13.0,24.0,41,0.00,,,0.00,0,WeatherHawk,2013-04-17 03:56:00,
2013-04-16 20:58:00,60.3,36.5,29.81,WNW,297,15.0,-999.0,41,0.00,,,0.00,0,WeatherHawk,2013-04-17 03:58:00,
2013-04-16 21:00:00,60.1,36.9,29.82,WNW,297,12.0,22.0,42,0.00,,,0.00,0,WeatherHawk,2013-04-17 04:00:00,
2013-04-16 21:02:00,59.7,37.2,29.82,WNW,295,11.0,22.0,43,0.00,,,0.00,0,WeatherHawk,2013-04-17 04:02:00,
2013-04-16 21:03:00,59.7,37.2,29.82,WNW,288,10.0,22.0,43,0.00,,,0.00,0,WeatherHawk,2013-04-17 04:03:00,
2013-04-16 21:04:00,59.7,37.2,29.82,WNW,288,10.0,22.0,43,0.00,,,0.00,0,WeatherHawk,2013-04-17 04:04:00,
2013-04-16 21:07:00,59.2,37.3,29.82,WNW,295,9.0,22.0,44,0.00,,,0.00,0,WeatherHawk,2013-04-17 04:07:00,
2013-04-16 21:08:00,59.2,37.3,29.82,WNW,296,10.0,22.0,44,0.00,,,0.00,0,WeatherHawk,2013-04-17 04:08:00,
2013-04-16 21:12:00,58.8,37.5,29.82,WNW,292,10.0,15.0,45,0.00,,,0.00,1,WeatherHawk,2013-04-17 04:12:00,
2013-04-16 21:13:00,58.8,37.5,29.82,WNW,293,11.0,-999.0,45,0.00,,,0.00,1,WeatherHawk,2013-04-17 04:13:00,
2013-04-16 21:14:00,58.8,37.0,29.82,WNW,297,11.0,15.0,44,0.00,,,0.00,0,WeatherHawk,2013-04-17 04:14:00,
2013-04-16 21:18:00,58.6,37.4,29.82,WNW,294,9.0,15.0,45,0.00,,,0.00,0,WeatherHawk,2013-04-17 04:18:00,
2013-04-16 21:19:00,58.5,37.2,29.82,WNW,290,10.0,11.0,45,0.00,,,0.00,0,WeatherHawk,2013-04-17 04:19:00,
2013-04-16 21:21:00,58.6,37.4,29.82,WNW,295,11.0,11.0,45,0.00,,,0.00,0,WeatherHawk,2013-04-17 04:21:00,
2013-04-16 21:24:00,58.5,36.6,29.82,WNW,297,11.0,11.0,44,0.00,,,0.00,0,WeatherHawk,2013-04-17 04:24:00,
2013-04-16 21:26:00,58.6,36.2,29.83,WNW,293,13.0,13.0,43,0.00,,,0.00,0,WeatherHawk,2013-04-17 04:26:00,
2013-04-16 21:27:00,58.6,36.2,29.83,WNW,289,11.0,11.0,43,0.00,,,0.00,0,WeatherHawk,2013-04-17 04:27:00,
2013-04-16 21:28:00,58.6,36.2,29.83,WNW,289,11.0,11.0,43,0.00,,,0.00,0,WeatherHawk,2013-04-17 04:28:00,
2013-04-16 21:32:00,58.3,37.0,29.83,WNW,287,10.0,17.0,45,0.00,,,0.00,0,WeatherHawk,2013-04-17 04:32:00,
2013-04-16 21:33:00,58.1,36.9,29.83,WNW,291,10.0,17.0,45,0.00,,,0.00,0,WeatherHawk,2013-04-17 04:33:00,
2013-04-16 21:35:00,57.9,36.7,29.83,WNW,292,11.0,17.0,45,0.00,,,0.00,0,WeatherHawk,2013-04-17 04:35:00,
2013-04-16 21:37:00,57.9,36.7,29.83,WNW,294,9.0,17.0,45,0.00,,,0.00,0,WeatherHawk,2013-04-17 04:37:00,
2013-04-16 21:38:00,57.9,36.7,29.83,WNW,295,9.0,17.0,45,0.00,,,0.00,1,WeatherHawk,2013-04-17 04:38:00,
2013-04-16 21:40:00,57.9,36.7,29.83,WNW,284,10.0,13.0,45,0.00,,,0.00,0,WeatherHawk,2013-04-17 04:40:00,
2013-04-16 21:43:00,57.9,36.7,29.84,WNW,284,8.0,13.0,45,0.00,,,0.00,0,WeatherHawk,2013-04-17 04:43:00,
2013-04-16 21:46:00,57.7,37.1,29.84,West,276,9.0,13.0,46,0.00,,,0.00,1,WeatherHawk,2013-04-17 04:46:00,
2013-04-16 21:48:00,57.6,36.9,29.84,West,279,7.0,13.0,46,0.00,,,0.00,0,WeatherHawk,2013-04-17 04:48:00,
2013-04-16 21:51:00,57.4,36.8,29.84,West,279,9.0,14.0,46,0.00,,,0.00,0,WeatherHawk,2013-04-17 04:51:00,
2013-04-16 21:53:00,57.4,37.3,29.84,West,272,8.0,14.0,47,0.00,,,0.00,0,WeatherHawk,2013-04-17 04:53:00,
2013-04-16 21:54:00,57.4,37.3,29.84,West,281,8.0,14.0,47,0.00,,,0.00,1,WeatherHawk,2013-04-17 04:54:00,
2013-04-16 21:58:00,57.2,37.2,29.84,West,276,8.0,14.0,47,0.00,,,0.00,0,WeatherHawk,2013-04-17 04:58:00,
2013-04-16 21:59:00,57.2,37.2,29.84,West,279,9.0,0.0,47,0.00,,,0.00,0,WeatherHawk,2013-04-17 04:59:00,
2013-04-16 22:00:00,57.2,37.2,29.84,West,278,9.0,11.0,47,0.00,,,0.00,0,WeatherHawk,2013-04-17 05:00:00,
2013-04-16 22:03:00,57.2,37.2,29.84,West,271,10.0,-999.0,47,0.00,,,0.00,0,WeatherHawk,2013-04-17 05:03:00,
2013-04-16 22:04:00,57.2,37.2,29.84,West,274,8.0,11.0,47,0.00,,,0.00,0,WeatherHawk,2013-04-17 05:04:00,
2013-04-16 22:06:00,57.0,37.5,29.84,West,271,9.0,11.0,48,0.00,,,0.00,0,WeatherHawk,2013-04-17 05:06:00,
2013-04-16 22:07:00,57.0,37.5,29.84,West,273,9.0,11.0,48,0.00,,,0.00,0,WeatherHawk,2013-04-17 05:07:00,
2013-04-16 22:08:00,57.0,37.5,29.84,West,273,9.0,11.0,48,0.00,,,0.00,0,WeatherHawk,2013-04-17 05:08:00,
2013-04-16 22:11:00,56.8,37.4,29.84,West,280,11.0,12.0,48,0.00,,,0.00,0,WeatherHawk,2013-04-17 05:11:00,
2013-04-16 22:12:00,56.7,37.2,29.84,West,280,11.0,12.0,48,0.00,,,0.00,0,WeatherHawk,2013-04-17 05:12:00,
2013-04-16 22:13:00,56.7,37.2,29.84,West,280,11.0,-999.0,48,0.00,,,0.00,0,WeatherHawk,2013-04-17 05:13:00,
2013-04-16 22:18:00,56.7,37.2,29.84,WNW,284,11.0,12.0,48,0.00,,,0.00,0,WeatherHawk,2013-04-17 05:18:00,
2013-04-16 22:19:00,56.7,37.2,29.84,West,274,11.0,12.0,48,0.00,,,0.00,0,WeatherHawk,2013-04-17 05:19:00,
2013-04-16 22:21:00,56.8,37.4,29.84,West,280,13.0,13.0,48,0.00,,,0.00,0,WeatherHawk,2013-04-17 05:21:00,
2013-04-16 22:22:00,57.0,37.0,29.84,West,279,10.0,12.0,47,0.00,,,0.00,0,WeatherHawk,2013-04-17 05:22:00,
2013-04-16 22:23:00,57.0,37.0,29.84,West,276,16.0,16.0,47,0.00,,,0.00,0,WeatherHawk,2013-04-17 05:23:00,
2013-04-16 22:27:00,57.0,37.5,29.84,West,277,11.0,12.0,48,0.00,,,0.00,0,WeatherHawk,2013-04-17 05:27:00,
2013-04-16 22:28:00,57.0,37.0,29.84,WNW,282,11.0,12.0,47,0.00,,,0.00,0,WeatherHawk,2013-04-17 05:28:00,
2013-04-16 22:29:00,57.0,37.5,29.84,West,276,10.0,16.0,48,0.00,,,0.00,0,WeatherHawk,2013-04-17 05:29:00,
2013-04-16 22:33:00,56.8,37.4,29.85,West,278,9.0,16.0,48,0.00,,,0.00,0,WeatherHawk,2013-04-17 05:33:00,
2013-04-16 22:35:00,56.8,37.9,29.85,West,276,9.0,16.0,49,0.00,,,0.00,1,WeatherHawk,2013-04-17 05:35:00,
2013-04-16 22:37:00,56.8,37.9,29.85,West,278,10.0,16.0,49,0.00,,,0.00,0,WeatherHawk,2013-04-17 05:37:00,
2013-04-16 22:38:00,56.7,37.7,29.85,West,281,9.0,16.0,49,0.00,,,0.00,0,WeatherHawk,2013-04-17 05:38:00,
2013-04-16 22:42:00,56.7,37.7,29.85,West,264,11.0,14.0,49,0.00,,,0.00,0,WeatherHawk,2013-04-17 05:42:00,
2013-04-16 22:43:00,56.7,37.7,29.85,West,271,9.0,14.0,49,0.00,,,0.00,0,WeatherHawk,2013-04-17 05:43:00,
2013-04-16 22:48:00,56.7,37.7,29.85,West,275,11.0,14.0,49,0.00,,,0.00,0,WeatherHawk,2013-04-17 05:48:00,
2013-04-16 22:49:00,56.7,37.7,29.85,West,276,8.0,13.0,49,0.00,,,0.00,0,WeatherHawk,2013-04-17 05:49:00,
2013-04-16 22:50:00,56.7,37.7,29.85,West,281,10.0,13.0,49,0.00,,,0.00,0,WeatherHawk,2013-04-17 05:50:00,
2013-04-16 22:53:00,56.5,37.6,29.85,WNW,283,10.0,13.0,49,0.00,,,0.00,0,WeatherHawk,2013-04-17 05:53:00,
2013-04-16 22:57:00,56.5,37.6,29.85,WNW,286,11.0,13.0,49,0.00,,,0.00,0,WeatherHawk,2013-04-17 05:57:00,
2013-04-16 22:58:00,56.5,37.6,29.85,WNW,286,11.0,13.0,49,0.00,,,0.00,0,WeatherHawk,2013-04-17 05:58:00,
2013-04-16 22:59:00,56.7,37.7,29.85,West,275,9.0,0.0,49,0.00,,,0.00,0,WeatherHawk,2013-04-17 05:59:00,
2013-04-16 23:00:00,56.5,37.6,29.85,West,278,8.0,12.0,49,0.00,,,0.00,0,WeatherHawk,2013-04-17 06:00:00,
2013-04-16 23:03:00,56.5,37.6,29.85,West,272,10.0,12.0,49,0.00,,,0.00,0,WeatherHawk,2013-04-17 06:03:00,
2013-04-16 23:05:00,56.5,37.6,29.85,West,279,8.0,12.0,49,0.00,,,0.00,0,WeatherHawk,2013-04-17 06:05:00,
2013-04-16 23:08:00,56.5,38.1,29.85,West,277,10.0,12.0,50,0.00,,,0.00,0,WeatherHawk,2013-04-17 06:08:00,
2013-04-16 23:09:00,56.5,38.1,29.85,West,281,11.0,14.0,50,0.00,,,0.00,0,WeatherHawk,2013-04-17 06:09:00,
2013-04-16 23:13:00,56.5,38.1,29.85,West,281,10.0,14.0,50,0.00,,,0.00,1,WeatherHawk,2013-04-17 06:13:00,
2013-04-16 23:15:00,56.3,38.4,29.85,WNW,283,8.0,14.0,51,0.00,,,0.00,0,WeatherHawk,2013-04-17 06:15:00,
2013-04-16 23:17:00,56.3,38.4,29.85,WNW,289,10.0,14.0,51,0.00,,,0.00,0,WeatherHawk,2013-04-17 06:17:00,
2013-04-16 23:18:00,56.3,38.4,29.85,WNW,287,9.0,14.0,51,0.00,,,0.00,0,WeatherHawk,2013-04-17 06:18:00,
2013-04-16 23:21:00,56.1,38.2,29.85,WNW,286,7.0,14.0,51,0.00,,,0.00,1,WeatherHawk,2013-04-17 06:21:00,
2013-04-16 23:23:00,56.1,38.2,29.86,WNW,287,10.0,14.0,51,0.00,,,0.00,0,WeatherHawk,2013-04-17 06:23:00,
2013-04-16 23:28:00,56.1,38.7,29.86,WNW,296,10.0,14.0,52,0.00,,,0.00,0,WeatherHawk,2013-04-17 06:28:00,
2013-04-16 23:29:00,56.1,38.7,29.86,WNW,290,9.0,14.0,52,0.00,,,0.00,0,WeatherHawk,2013-04-17 06:29:00,
2013-04-16 23:32:00,56.1,38.7,29.86,WNW,291,9.0,14.0,52,0.00,,,0.00,1,WeatherHawk,2013-04-17 06:32:00,
2013-04-16 23:33:00,55.9,38.6,29.86,West,281,9.0,-999.0,52,0.00,,,0.00,0,WeatherHawk,2013-04-17 06:33:00,
2013-04-16 23:37:00,55.9,39.1,29.86,WNW,289,8.0,14.0,53,0.00,,,0.00,0,WeatherHawk,2013-04-17 06:37:00,
2013-04-16 23:38:00,55.9,39.1,29.86,WNW,289,8.0,14.0,53,0.00,,,0.00,0,WeatherHawk,2013-04-17 06:38:00,
2013-04-16 23:41:00,55.8,39.4,29.86,WNW,292,9.0,14.0,54,0.00,,,0.00,0,WeatherHawk,2013-04-17 06:41:00,
2013-04-16 23:43:00,55.8,39.4,29.86,WNW,296,9.0,14.0,54,0.00,,,0.00,0,WeatherHawk,2013-04-17 06:43:00,
2013-04-16 23:45:00,55.8,38.9,29.86,WNW,294,9.0,14.0,53,0.00,,,0.00,0,WeatherHawk,2013-04-17 06:45:00,
2013-04-16 23:48:00,55.9,39.1,29.86,WNW,289,12.0,14.0,53,0.00,,,0.00,0,WeatherHawk,2013-04-17 06:48:00,
2013-04-16 23:51:00,55.9,39.1,29.87,WNW,291,9.0,12.0,53,0.00,,,0.00,1,WeatherHawk,2013-04-17 06:51:00,
2013-04-16 23:53:00,55.8,38.9,29.86,WNW,292,10.0,-999.0,53,0.00,,,0.00,0,WeatherHawk,2013-04-17 06:53:00,
2013-04-16 23:56:00,55.8,38.9,29.87,WNW,292,12.0,12.0,53,0.00,,,0.00,1,WeatherHawk,2013-04-17 06:56:00,
2013-04-16 23:58:00,55.9,39.1,29.87,WNW,293,12.0,12.0,53,0.00,,,0.00,0,WeatherHawk,2013-04-17 06:58:00,